Latitude: N 50° 09' 49" Longitude: W 05° 11' 53" Elevation: 168m ASL

There are 18 visitors online

Adverts

<- Previous Day | Today | Next Day ->

All Data for 06 December 2017

Time
A - D
Temp
A - D
Dew Point
A - D
Humidity
A - D
Pressure
A - D
Wind
A - D
Wind Dir Gust
A - D
Rain Rate
A - D
Rain Total
00:00 9.4 9.3 99 1032.2 7.6 SE 8.3 0.0 0.0
00:00 9.4 9.3 99 1032.2 7.6 SE 8.3 0.0 0.0
00:02 9.4 9.3 99 1032.2 7.6 SE 8.3 0.0 0.0
00:02 9.4 9.3 99 1032.2 7.6 SE 8.3 0.0 0.0
00:03 9.4 9.3 99 1032.2 7.6 SE 8.3 0.0 0.0
00:05 9.5 9.4 99 1032.2 7.6 SE 8.3 0.0 0.0
00:05 9.5 9.4 99 1032.2 7.6 SE 8.3 0.0 0.0
00:06 9.4 9.3 99 1032.2 5.4 NE 7.6 0.0 0.0
00:08 9.4 9.3 99 1032.3 7.6 SE 7.6 0.0 0.0
00:09 9.5 9.4 99 1032.3 6.0 S 7.6 0.0 0.0
00:09 9.5 9.4 99 1032.3 6.0 S 7.6 0.0 0.0
00:10 9.5 9.4 99 1032.2 6.9 W 7.6 0.0 0.0
00:12 9.5 9.4 99 1032.2 8.3 SE 9.2 0.0 0.0
00:13 9.5 9.4 99 1032.2 6.0 SE 9.2 0.0 0.0
00:13 9.5 9.4 99 1032.2 6.0 SE 9.2 0.0 0.0
00:14 9.5 9.4 99 1032.2 8.3 SE 9.2 0.0 0.0
00:15 9.5 9.4 99 1032.2 7.6 SE 9.2 0.0 0.0
00:16 9.5 9.4 99 1032.3 8.3 S 9.2 0.0 0.0
00:17 9.5 9.4 99 1032.1 9.2 SE 9.2 0.0 0.0
00:18 9.5 9.4 99 1032.2 6.0 SE 9.2 0.0 0.0
00:20 9.5 9.4 99 1032.1 9.2 SE 9.2 0.0 0.0
00:21 9.5 9.4 99 1032.3 7.6 WNW 9.2 0.0 0.0
00:22 9.5 9.4 99 1032.1 6.9 S 9.2 0.0 0.0
00:23 9.5 9.4 99 1032.1 6.0 S 9.2 0.0 0.0
00:24 9.5 9.4 99 1032.1 5.4 SE 9.2 0.0 0.0
00:25 9.5 9.4 99 1032.2 7.6 SE 9.2 0.0 0.0
00:25 9.5 9.4 99 1032.2 7.6 SE 9.2 0.0 0.0
00:27 9.5 9.4 99 1032.1 7.6 SW 9.2 0.0 0.0
00:28 9.6 9.5 99 1032.1 8.3 S 9.2 0.0 0.0
00:29 9.6 9.5 99 1032.1 6.9 S 9.2 0.0 0.0
00:30 9.6 9.5 99 1032.2 5.4 S 9.2 0.0 0.0
00:31 9.6 9.5 99 1032.1 6.9 S 8.3 0.0 0.0
00:32 9.6 9.5 99 1032.0 6.0 S 8.3 0.0 0.0
00:33 9.6 9.5 99 1032.1 9.8 SE 9.8 0.0 0.0
00:34 9.6 9.5 99 1032.1 6.9 SE 9.8 0.0 0.0
00:35 9.6 9.5 99 1031.9 6.9 S 9.8 0.0 0.0
00:36 9.6 9.5 99 1031.9 5.4 S 9.8 0.0 0.0
00:37 9.6 9.5 99 1031.9 8.3 S 9.8 0.0 0.0
00:38 9.6 9.5 99 1031.9 8.3 SE 9.8 0.0 0.0
00:39 9.6 9.5 99 1032.2 12.1 S 12.1 0.0 0.0
00:39 9.6 9.5 99 1032.2 12.1 S 12.1 0.0 0.0
00:40 9.6 9.5 99 1032.1 9.2 S 12.1 0.0 0.0
00:41 9.6 9.5 99 1032.0 9.2 NNW 12.1 0.0 0.0
00:42 9.6 9.5 99 1031.9 7.6 SE 12.1 0.0 0.0
00:43 9.6 9.5 99 1032.0 8.3 S 12.1 0.0 0.0
00:44 9.6 9.5 99 1032.0 7.6 SE 12.1 0.0 0.0
00:46 9.6 9.5 99 1032.0 6.9 S 12.1 0.0 0.0
00:47 9.7 9.6 99 1031.9 7.6 S 12.1 0.0 0.0
00:48 9.7 9.6 99 1031.9 6.9 W 12.1 0.0 0.0
00:49 9.7 9.6 99 1031.9 8.3 S 12.1 0.0 0.0
00:50 9.7 9.6 99 1031.8 6.9 S 9.2 0.0 0.0
00:51 9.7 9.6 99 1031.9 6.0 SE 9.2 0.0 0.0
00:52 9.7 9.6 99 1031.9 6.0 SE 8.3 0.0 0.0
00:53 9.7 9.6 99 1031.8 9.2 S 9.2 0.0 0.0
00:53 9.7 9.6 99 1031.8 9.2 S 9.2 0.0 0.0
00:54 9.7 9.6 99 1031.8 6.0 NE 9.2 0.0 0.0
00:55 9.7 9.6 99 1031.9 9.8 SW 12.1 0.0 0.0
00:56 9.7 9.6 99 1031.8 12.1 W 12.1 0.0 0.0
00:57 9.7 9.6 99 1031.9 13.0 S 13.0 0.0 0.0
00:58 9.8 9.7 99 1031.8 11.4 SW 13.0 0.0 0.0
01:00 9.8 9.7 99 1031.9 9.2 SW 13.0 0.0 0.0
01:01 9.8 9.7 99 1031.9 9.2 SW 13.0 0.0 0.0
01:02 9.8 9.7 99 1031.9 9.2 SW 13.0 0.0 0.0
01:03 9.8 9.7 99 1031.9 9.2 SW 13.0 0.0 0.0
01:04 9.8 9.7 99 1031.8 9.2 SW 13.0 0.0 0.0
01:05 9.9 9.8 99 1031.9 9.2 S 13.0 0.0 0.0
01:05 9.9 9.8 99 1031.9 9.2 S 13.0 0.0 0.0
01:06 9.9 9.8 99 1031.8 12.1 E 13.0 0.0 0.0
01:07 9.9 9.8 99 1031.9 9.2 SE 12.1 0.0 0.0
01:08 10.0 9.9 99 1031.8 7.6 S 12.1 0.0 0.0
01:09 10.0 9.9 99 1031.8 9.8 S 12.1 0.0 0.0
01:10 10.0 9.9 99 1031.8 8.3 SE 12.1 0.0 0.0
01:12 10.0 9.9 99 1031.7 9.8 S 12.1 0.0 0.0
01:13 10.0 9.9 99 1031.8 8.3 SE 12.1 0.0 0.0
01:14 10.0 9.9 99 1031.7 9.8 SE 12.1 0.0 0.0
01:15 10.0 9.9 99 1031.6 11.4 S 12.1 0.0 0.0
01:16 10.0 9.9 99 1031.7 13.0 S 13.0 0.0 0.0
01:17 10.0 9.9 99 1031.7 10.7 S 15.2 0.0 0.0
01:18 10.0 9.9 99 1031.5 9.8 S 15.2 0.0 0.0
01:19 10.0 9.9 99 1031.7 10.7 S 15.2 0.0 0.0
01:20 10.0 9.9 99 1031.5 9.2 S 15.2 0.0 0.0
01:21 10.1 10.0 99 1031.6 9.2 S 15.2 0.0 0.0
01:22 10.1 10.0 99 1031.7 11.4 S 15.2 0.0 0.0
01:23 10.1 10.0 99 1031.5 9.8 S 15.2 0.0 0.0
01:23 10.1 10.0 99 1031.5 9.8 S 15.2 0.0 0.0
01:24 10.1 10.0 99 1031.7 9.2 S 15.2 0.0 0.0
01:25 10.1 10.0 99 1031.5 10.7 S 15.2 0.0 0.0
01:26 10.1 10.0 99 1031.6 8.3 S 15.2 0.0 0.0
01:27 10.1 10.0 99 1031.6 10.7 S 11.4 0.0 0.0
01:28 10.0 9.9 99 1031.6 11.4 S 11.4 0.0 0.0
01:29 10.0 9.9 99 1031.6 10.7 S 11.4 0.0 0.0
01:31 10.1 10.0 99 1031.5 6.9 S 11.4 0.0 0.0
01:32 10.0 9.9 99 1031.5 12.1 S 12.1 0.0 0.0
01:33 10.0 9.9 99 1031.4 10.7 SE 12.1 0.0 0.0
01:34 10.0 9.9 99 1031.6 9.2 S 12.1 0.0 0.0
01:35 10.0 9.9 99 1031.7 9.2 S 12.1 0.0 0.0
01:36 10.0 9.9 99 1031.5 9.8 S 12.1 0.0 0.0
01:37 10.0 9.9 99 1031.4 6.9 S 12.1 0.0 0.0
01:38 10.0 9.9 99 1031.4 9.2 S 12.1 0.0 0.0
01:39 10.0 9.9 99 1031.4 9.2 SE 12.1 0.0 0.0
01:40 10.0 9.9 99 1031.5 9.8 NNW 12.1 0.0 0.0
01:41 10.0 9.9 99 1031.4 7.6 S 12.1 0.0 0.0
01:42 10.0 9.9 99 1031.4 9.2 N 11.4 0.0 0.0
01:43 10.0 9.9 99 1031.4 9.8 SE 11.4 0.0 0.0
01:44 10.0 9.9 99 1031.2 9.2 SE 11.4 0.0 0.0
01:45 10.0 9.9 99 1031.3 8.3 S 11.4 0.0 0.0
01:45 10.0 9.9 99 1031.3 8.3 S 11.4 0.0 0.0
01:46 10.0 9.9 99 1031.3 9.2 S 11.4 0.0 0.0
01:47 10.0 9.9 99 1031.3 7.6 SE 11.4 0.0 0.0
01:48 10.0 9.9 99 1031.3 11.4 S 11.4 0.0 0.0
01:49 10.0 9.9 99 1031.2 9.2 S 11.4 0.0 0.0
01:50 10.0 9.9 99 1031.3 10.7 S 11.4 0.0 0.0
01:51 10.0 9.9 99 1031.3 11.4 S 11.4 0.0 0.0
01:52 10.0 9.9 99 1031.3 12.1 S 12.1 0.0 0.0
01:54 10.0 9.9 99 1031.3 12.1 S 13.6 0.0 0.0
01:55 10.0 9.9 99 1031.3 12.1 S 13.6 0.0 0.0
01:56 10.0 9.9 99 1031.2 12.1 S 13.6 0.0 0.0
01:57 10.0 9.9 99 1031.4 14.5 S 14.5 0.0 0.0
01:58 10.0 9.9 99 1031.2 11.4 S 14.5 0.0 0.0
01:59 10.0 9.9 99 1031.2 12.1 S 14.5 0.0 0.0
02:00 10.0 9.9 99 1031.2 12.1 S 14.5 0.0 0.0
02:01 10.0 9.9 99 1031.1 12.1 S 14.5 0.0 0.0
02:02 10.0 9.9 99 1031.1 12.1 S 14.5 0.0 0.0
02:03 10.0 9.9 99 1031.2 12.1 S 14.5 0.0 0.0
02:04 10.0 9.9 99 1031.2 12.1 S 14.5 0.0 0.0
02:04 10.0 9.9 99 1031.2 12.1 S 14.5 0.0 0.0
02:05 10.0 9.9 99 1031.2 10.7 S 14.5 0.0 0.0
02:07 10.0 9.9 99 1031.1 8.3 SE 14.5 0.0 0.0
02:08 10.0 9.9 99 1031.2 8.3 S 12.1 0.0 0.0
02:09 10.0 9.9 99 1031.1 11.4 SE 12.1 0.0 0.0
02:09 10.0 9.9 99 1031.1 11.4 SE 12.1 0.0 0.0
02:10 10.0 9.9 99 1031.1 9.8 SW 12.1 0.0 0.0
02:12 10.0 9.9 99 1031.1 8.3 SE 12.1 0.0 0.0
02:13 10.0 9.9 99 1031.0 7.6 S 12.1 0.0 0.0
02:14 10.0 9.9 99 1031.2 9.2 S 12.1 0.0 0.0
02:15 10.0 9.9 99 1031.2 9.2 S 11.4 0.0 0.0
02:16 9.9 9.8 99 1031.0 9.8 S 11.4 0.0 0.0
02:17 10.0 9.9 99 1031.3 9.2 S 11.4 0.0 0.0
02:18 9.9 9.8 99 1031.0 12.1 SE 12.1 0.0 0.0
02:19 9.9 9.8 99 1031.3 11.4 W 12.1 0.0 0.0
02:19 9.9 9.8 99 1031.3 11.4 W 12.1 0.0 0.0
02:20 9.9 9.8 99 1031.2 11.4 W 12.1 0.0 0.0
02:21 9.9 9.8 99 1031.2 9.8 S 12.1 0.0 0.0
02:22 9.9 9.8 99 1031.1 11.4 S 12.1 0.0 0.0
02:23 9.9 9.8 99 1031.0 9.8 SE 12.1 0.0 0.0
02:24 9.9 9.8 99 1031.0 9.8 S 12.1 0.0 0.0
02:25 9.9 9.8 99 1031.1 6.9 SE 12.1 0.0 0.0
02:26 9.9 9.8 99 1031.2 13.0 S 13.0 0.0 0.0
02:27 9.9 9.8 99 1031.1 9.8 S 13.0 0.0 0.0
02:29 9.9 9.8 99 1031.1 9.2 NW 13.0 0.0 0.0
02:30 9.9 9.8 99 1031.1 8.3 S 13.0 0.0 0.0
02:30 9.9 9.8 99 1031.1 8.3 S 13.0 0.0 0.0
02:30 9.9 9.8 99 1031.1 8.3 S 13.0 0.0 0.0
02:30 9.9 9.8 99 1031.1 8.3 S 13.0 0.0 0.0
02:30 9.9 9.8 99 1031.1 8.3 S 13.0 0.0 0.0
02:30 9.9 9.8 99 1031.1 8.3 S 13.0 0.0 0.0
02:31 9.9 9.8 99 1031.0 9.2 S 13.0 0.0 0.0
02:31 9.9 9.8 99 1031.0 9.2 S 13.0 0.0 0.0
02:38 9.9 9.8 99 1031.0 10.7 S 12.1 0.0 0.0
02:39 9.9 9.8 99 1031.1 9.2 S 12.1 0.0 0.0
02:40 9.9 9.8 99 1030.9 9.8 S 12.1 0.0 0.0
02:41 9.9 9.8 99 1030.8 9.2 SE 12.1 0.0 0.0
02:42 9.9 9.8 99 1030.9 7.6 SE 12.1 0.0 0.0
02:43 9.9 9.8 99 1030.9 9.2 NW 12.1 0.0 0.0
02:44 9.9 9.8 99 1030.9 10.7 S 12.1 0.0 0.0
02:44 9.9 9.8 99 1030.9 10.7 S 12.1 0.0 0.0
02:45 9.9 9.8 99 1030.9 9.8 S 12.1 0.0 0.0
02:46 9.9 9.8 99 1030.9 9.8 S 12.1 0.0 0.0
02:48 9.9 9.8 99 1030.9 9.2 S 10.7 0.0 0.0
02:49 9.9 9.8 99 1030.8 12.1 S 12.1 0.0 0.0
02:50 9.9 9.8 99 1030.9 9.8 SE 12.1 0.0 0.0
02:51 9.9 9.8 99 1031.0 8.3 S 12.1 0.0 0.0
02:52 9.8 9.7 99 1030.9 6.9 S 12.1 0.0 0.0
02:53 9.9 9.8 99 1031.0 7.6 S 12.1 0.0 0.0
02:54 9.9 9.8 99 1030.9 7.6 SE 12.1 0.0 0.0
02:55 9.9 9.8 99 1030.7 8.3 S 12.1 0.0 0.0
02:56 9.9 9.8 99 1030.9 6.9 S 12.1 0.0 0.0
02:57 9.8 9.7 99 1030.8 8.3 S 12.1 0.0 0.0
02:58 9.9 9.8 99 1031.0 6.9 SE 12.1 0.0 0.0
02:59 9.9 9.8 99 1030.9 6.9 SE 9.8 0.0 0.0
03:00 9.8 9.7 99 1030.9 9.2 SE 9.2 0.0 0.0
03:01 9.8 9.7 99 1030.8 9.2 SE 9.2 0.0 0.0
03:02 9.8 9.7 99 1031.0 9.2 SE 9.2 0.0 0.0
03:03 9.8 9.7 99 1030.8 9.2 SE 9.2 0.0 0.0
03:03 9.8 9.7 99 1030.8 9.2 SE 9.2 0.0 0.0
03:04 9.8 9.7 99 1030.8 9.2 SE 9.2 0.0 0.0
03:05 9.9 9.8 99 1030.8 10.7 SE 10.7 0.0 0.0
03:07 9.9 9.8 99 1030.8 11.4 S 13.6 0.0 0.0
03:07 9.9 9.8 99 1030.8 11.4 S 13.6 0.0 0.0
03:09 9.9 9.8 99 1030.7 11.4 S 13.6 0.0 0.0
03:10 9.9 9.8 99 1030.8 13.0 S 13.6 0.0 0.0
03:11 9.9 9.8 99 1030.7 9.8 S 13.6 0.0 0.0
03:12 9.9 9.8 99 1030.7 10.7 S 13.6 0.0 0.0
03:13 9.9 9.8 99 1030.7 8.3 S 13.6 0.0 0.0
03:14 9.9 9.8 99 1030.6 9.8 S 13.6 0.0 0.0
03:15 9.9 9.8 99 1030.6 8.3 S 13.6 0.0 0.0
03:16 9.9 9.8 99 1030.6 7.6 S 13.6 0.0 0.0
03:17 9.9 9.8 99 1030.4 8.3 S 13.0 0.0 0.0
03:18 9.9 9.8 99 1030.5 7.6 S 13.0 0.0 0.0
03:19 9.9 9.8 99 1030.5 7.6 SE 13.0 0.0 0.0
03:20 9.9 9.8 99 1030.6 7.6 S 11.4 0.0 0.0
03:21 9.9 9.8 99 1030.6 13.0 S 13.0 0.0 0.0
03:22 9.9 9.8 99 1030.7 13.6 S 13.6 0.0 0.0
03:23 9.9 9.8 99 1030.6 10.7 S 13.6 0.0 0.0
03:23 9.9 9.8 99 1030.6 10.7 S 13.6 0.0 0.0
03:24 9.9 9.8 99 1030.7 11.4 S 13.6 0.0 0.0
03:25 10.0 9.9 99 1030.5 11.4 SW 13.6 0.0 0.0
03:26 10.0 9.9 99 1030.5 12.1 SW 13.6 0.0 0.0
03:28 10.0 9.9 99 1030.5 15.2 S 15.2 0.0 0.0
03:29 10.0 9.9 99 1030.5 9.8 S 15.2 0.0 0.0
03:30 10.0 9.9 99 1030.5 11.4 S 15.2 0.0 0.0
03:31 10.0 9.9 99 1030.5 13.0 S 15.2 0.0 0.0
03:32 10.0 9.9 99 1030.6 9.8 S 15.2 0.0 0.0
03:33 10.0 9.9 99 1030.6 13.6 S 15.2 0.0 0.0
03:34 10.0 9.9 99 1030.6 10.7 S 15.2 0.0 0.0
03:35 10.0 9.9 99 1030.5 10.7 S 15.2 0.0 0.0
03:36 10.0 9.9 99 1030.4 15.2 SE 15.2 0.0 0.0
03:37 10.0 9.9 99 1030.5 13.0 SE 15.2 0.0 0.0
03:38 10.0 9.9 99 1030.5 13.0 S 15.2 0.0 0.0
03:39 10.0 9.9 99 1030.4 12.1 S 15.2 0.0 0.0
03:40 10.0 9.9 99 1030.4 14.5 S 15.2 0.0 0.0
03:41 10.0 9.9 99 1030.4 15.2 S 15.2 0.0 0.0
03:42 10.0 9.9 99 1030.4 11.4 SE 15.2 0.0 0.0
03:43 10.0 9.9 99 1030.4 10.7 NNE 15.2 0.0 0.0
03:43 10.0 9.9 99 1030.4 10.7 NNE 15.2 0.0 0.0
03:44 10.0 9.9 99 1030.4 11.4 S 15.9 0.0 0.0
03:45 10.0 9.9 99 1030.3 15.2 S 15.9 0.0 0.0
03:46 10.1 10.0 99 1030.3 11.4 SW 15.9 0.0 0.0
03:47 10.0 9.9 99 1030.4 14.5 SE 15.9 0.0 0.0
03:49 10.1 10.0 99 1030.3 12.1 S 15.9 0.0 0.0
03:50 10.0 9.9 99 1030.2 15.2 S 15.9 0.0 0.0
03:51 10.1 10.0 99 1030.3 11.4 W 15.9 0.0 0.0
03:52 10.1 10.0 99 1030.2 10.7 S 15.9 0.0 0.0
03:53 10.1 10.0 99 1030.2 10.7 SE 15.9 0.0 0.0
03:54 10.0 9.9 99 1030.2 12.1 S 15.2 0.0 0.0
03:55 10.1 10.0 99 1030.2 13.0 S 15.2 0.0 0.0
03:56 10.0 9.9 99 1030.2 9.8 SE 15.9 0.0 0.0
03:57 10.0 9.9 99 1030.2 13.0 S 15.9 0.0 0.0
03:58 10.0 9.9 99 1030.0 14.5 S 15.9 0.0 0.0
03:59 10.0 9.9 99 1030.1 12.1 S 15.9 0.0 0.0
04:00 10.0 9.9 99 1030.2 9.8 SE 15.9 0.0 0.0
04:01 10.0 9.9 99 1030.1 9.8 SE 15.9 0.0 0.0
04:01 10.0 9.9 99 1030.1 9.8 SE 15.9 0.0 0.0
04:02 10.0 9.9 99 1030.0 9.8 SE 15.9 0.0 0.0
04:03 10.0 9.9 99 1030.0 9.8 SE 15.9 0.0 0.0
04:04 10.0 9.9 99 1029.9 9.8 SE 15.9 0.0 0.0
04:06 10.0 9.9 99 1030.0 8.3 SW 15.9 0.0 0.0
04:07 10.0 9.9 99 1030.0 11.4 SE 14.5 0.0 0.0
04:07 10.0 9.9 99 1030.0 11.4 SE 14.5 0.0 0.0
04:09 10.0 9.9 99 1029.9 12.1 S 12.1 0.0 0.0
04:10 10.0 9.9 99 1030.1 13.0 S 13.0 0.0 0.0
04:11 10.0 9.9 99 1029.9 11.4 S 13.0 0.0 0.0
04:12 10.0 9.9 99 1029.9 11.4 S 13.0 0.0 0.0
04:13 10.0 9.9 99 1030.1 9.2 S 13.0 0.0 0.0
04:13 10.0 9.9 99 1030.1 9.2 S 13.0 0.0 0.0
04:15 10.0 9.9 99 1030.0 10.7 S 13.0 0.0 0.0
04:16 10.0 9.9 99 1029.9 13.0 S 13.0 0.0 0.0
04:17 10.0 9.9 99 1029.8 11.4 NW 13.0 0.0 0.0
04:18 10.0 9.9 99 1029.8 9.2 SW 13.0 0.0 0.0
04:19 10.0 9.9 99 1030.0 15.2 SW 15.2 0.0 0.0
04:20 10.0 9.9 99 1029.8 12.1 S 15.2 0.0 0.0
04:21 10.0 9.9 99 1029.8 13.6 S 15.2 0.0 0.0
04:22 10.0 9.9 99 1029.8 8.3 S 15.2 0.0 0.0
04:23 10.0 9.9 99 1029.8 13.6 S 15.2 0.0 0.0
04:24 10.0 9.9 99 1029.8 11.4 S 15.2 0.0 0.0
04:25 10.0 9.9 99 1029.6 14.5 S 15.2 0.0 0.0
04:26 10.0 9.9 99 1029.7 10.7 S 15.2 0.0 0.0
04:27 10.0 9.9 99 1029.7 9.2 S 15.2 0.0 0.0
04:28 10.0 9.9 99 1029.8 12.1 S 15.2 0.0 0.0
04:29 10.0 9.9 99 1029.6 14.5 SE 15.2 0.0 0.0
04:30 10.0 9.9 99 1029.6 14.5 SE 15.2 0.0 0.0
04:30 10.0 9.9 99 1029.6 14.5 SE 15.2 0.0 0.0
04:31 10.0 9.9 99 1029.6 14.5 NW 15.2 0.0 0.0
04:32 10.0 9.9 99 1029.6 12.1 SE 15.2 0.0 0.0
04:33 10.0 9.9 99 1029.6 12.1 S 15.2 0.0 0.0
04:34 10.0 9.9 99 1029.8 11.4 N 15.2 0.0 0.0
04:36 10.0 9.9 99 1029.6 14.5 S 14.5 0.0 0.0
04:37 10.0 9.9 99 1029.6 11.4 S 14.5 0.0 0.0
04:38 10.0 9.9 99 1029.6 10.7 N 14.5 0.0 0.0
04:39 10.0 9.9 99 1029.6 15.2 S 15.2 0.0 0.0
04:40 10.0 9.9 99 1029.5 13.0 S 15.2 0.0 0.0
04:41 10.0 9.9 99 1029.5 10.7 S 15.2 0.0 0.0
04:42 10.0 9.9 99 1029.4 15.2 S 15.2 0.0 0.0
04:43 10.0 9.9 99 1029.2 12.1 S 15.2 0.0 0.0
04:44 10.0 9.9 99 1029.4 13.0 S 15.2 0.0 0.0
04:45 10.0 9.9 99 1029.6 10.7 SE 15.2 0.0 0.0
04:46 10.0 9.9 99 1029.6 14.5 SE 15.2 0.0 0.0
04:47 10.0 9.9 99 1029.5 13.0 S 15.2 0.0 0.0
04:48 10.0 9.9 99 1029.5 17.4 S 17.4 0.0 0.0
04:49 10.0 9.9 99 1029.6 12.1 S 17.4 0.0 0.0
04:50 10.0 9.9 99 1029.7 9.8 SE 17.4 0.0 0.0
04:50 10.0 9.9 99 1029.7 9.8 SE 17.4 0.0 0.0
04:51 10.0 9.9 99 1029.6 13.6 S 19.0 0.0 0.0
04:52 10.0 9.9 99 1029.5 15.2 S 19.0 0.0 0.0
04:53 10.0 9.9 99 1029.6 16.8 S 19.0 0.0 0.0
04:54 10.0 9.9 99 1029.4 12.1 S 19.0 0.0 0.0
04:56 10.0 9.9 99 1029.4 10.7 S 19.0 0.0 0.0
04:57 10.0 9.9 99 1029.5 13.6 S 19.0 0.0 0.0
04:58 10.0 9.9 99 1029.5 13.0 SE 19.0 0.0 0.0
04:59 10.0 9.9 99 1029.3 10.7 S 19.0 0.0 0.0
05:00 10.1 10.0 99 1029.6 15.2 S 19.0 0.0 0.0
05:01 10.1 10.0 99 1029.3 15.2 S 19.0 0.0 0.0
05:02 10.1 10.0 99 1029.4 15.2 S 16.8 0.0 0.0
05:03 10.1 10.0 99 1029.2 15.2 S 16.8 0.0 0.0
05:04 10.1 10.0 99 1029.3 15.2 S 15.2 0.0 0.0
05:05 10.0 9.9 99 1029.3 9.8 SE 15.2 0.0 0.0
05:05 10.0 9.9 99 1029.3 9.8 SE 15.2 0.0 0.0
05:07 10.1 10.0 99 1029.2 12.1 W 15.2 0.0 0.0
05:07 10.1 10.0 99 1029.2 12.1 W 15.2 0.0 0.0
05:08 10.0 9.9 99 1029.2 12.1 NW 15.2 0.0 0.0
05:10 10.0 9.9 99 1029.4 15.2 S 15.2 0.0 0.0
05:11 10.0 9.9 99 1029.2 13.0 S 15.2 0.0 0.0
05:12 10.1 10.0 99 1029.2 10.7 SE 15.2 0.0 0.0
05:13 10.0 9.9 99 1029.2 9.8 S 15.2 0.0 0.0
05:14 10.0 9.9 99 1029.2 9.8 S 15.2 0.0 0.0
05:15 10.0 9.9 99 1029.2 17.4 S 17.4 0.0 0.0
05:16 10.0 9.9 99 1029.2 10.7 SE 17.4 0.0 0.0
05:17 10.1 10.0 99 1029.2 11.4 S 17.4 0.0 0.0
05:18 10.0 9.9 99 1029.3 15.9 S 17.4 0.0 0.0
05:19 10.0 9.9 99 1029.2 15.9 S 17.4 0.0 0.0
05:20 10.0 9.9 99 1029.3 15.9 S 17.4 0.0 0.0
05:22 10.0 9.9 99 1029.2 14.5 S 17.4 0.0 0.0
05:23 10.1 10.0 99 1029.2 16.8 N 17.4 0.0 0.0
05:24 10.1 10.0 99 1029.2 13.6 S 17.4 0.0 0.0
05:25 10.1 10.0 99 1029.2 11.4 S 17.4 0.0 0.0
05:26 10.1 10.0 99 1029.2 10.7 S 17.4 0.0 0.0
05:27 10.0 9.9 99 1029.3 12.1 SE 16.8 0.0 0.0
05:28 10.1 10.0 99 1029.2 14.5 S 16.8 0.0 0.0
05:29 10.1 10.0 99 1029.2 14.5 SW 16.8 0.0 0.0
05:30 10.1 10.0 99 1029.2 11.4 SE 16.8 0.0 0.0
05:31 10.0 9.9 99 1029.2 14.5 S 16.8 0.0 0.0
05:32 10.1 10.0 99 1029.3 14.5 SE 16.8 0.0 0.0
05:33 10.1 10.0 99 1029.1 15.9 S 16.8 0.0 0.0
05:34 10.1 10.0 99 1029.1 15.9 S 16.8 0.0 0.0
05:35 10.1 10.0 99 1029.1 19.0 S 19.0 0.0 0.0
05:36 10.1 10.0 99 1029.1 14.5 S 19.0 0.0 0.0
05:37 10.1 10.0 99 1029.0 14.5 S 19.0 0.0 0.0
05:37 10.1 10.0 99 1029.0 14.5 S 19.0 0.0 0.0
05:38 10.1 10.0 99 1029.0 17.4 S 19.0 0.0 0.0
05:39 10.1 10.0 99 1029.1 13.0 S 19.0 0.0 0.0
05:40 10.1 10.0 99 1029.0 15.9 S 19.0 0.0 0.0
05:41 10.1 10.0 99 1028.9 13.6 S 19.0 0.0 0.0
05:43 10.1 10.0 99 1029.0 13.0 S 19.0 0.0 0.0
05:44 10.1 10.0 99 1028.9 11.4 SE 19.0 0.0 0.0
05:45 10.1 10.0 99 1029.0 15.2 S 19.0 0.0 0.0
05:46 10.1 10.0 99 1029.0 10.7 S 19.0 0.0 0.0
05:47 10.1 10.0 99 1029.0 10.7 S 17.4 0.0 0.0
05:48 10.1 10.0 99 1029.0 10.7 SW 17.4 0.0 0.0
05:49 10.1 10.0 99 1029.1 11.4 S 15.9 0.0 0.0
05:50 10.1 10.0 99 1028.9 9.8 SE 15.9 0.0 0.0
05:51 10.1 10.0 99 1028.9 14.5 SW 15.2 0.0 0.0
05:52 10.1 10.0 99 1029.0 14.5 SE 15.2 0.0 0.0
05:53 10.1 10.0 99 1028.9 12.1 S 15.2 0.0 0.0
05:54 10.0 9.9 99 1028.8 12.1 S 15.2 0.0 0.0
05:55 10.1 10.0 99 1028.8 9.2 SE 15.2 0.0 0.0
05:56 10.1 10.0 99 1028.9 9.2 S 14.5 0.0 0.0
05:57 10.1 10.0 99 1029.0 10.7 S 14.5 0.0 0.0
05:57 10.1 10.0 99 1029.0 10.7 S 14.5 0.0 0.0
05:58 10.0 9.9 99 1028.9 10.7 S 14.5 0.0 0.0
05:59 10.0 9.9 99 1028.9 10.7 S 14.5 0.0 0.0
06:00 10.0 9.9 99 1028.9 10.7 S 14.5 0.0 0.0
06:01 10.0 9.9 99 1028.8 10.7 S 14.5 0.0 0.0
06:03 10.0 9.9 99 1028.7 10.7 S 13.6 0.0 0.0
06:04 10.0 9.9 99 1028.7 10.7 S 13.6 0.0 0.0
06:05 10.0 9.9 99 1028.7 10.7 S 13.6 0.0 0.0
06:06 10.0 9.9 99 1028.7 10.7 S 10.7 0.0 0.0
06:06 10.0 9.9 99 1028.7 10.7 S 10.7 0.0 0.0
06:07 10.1 10.0 99 1028.7 9.8 WSW 10.7 0.0 0.0
06:09 10.1 10.0 99 1028.8 11.4 S 15.2 0.0 0.0
06:09 10.1 10.0 99 1028.8 11.4 S 15.2 0.0 0.0
06:11 10.0 9.9 99 1028.7 13.6 S 15.2 0.0 0.0
06:12 10.0 9.9 99 1028.7 13.6 S 15.2 0.0 0.0
06:13 10.0 9.9 99 1028.7 11.4 SE 15.2 0.0 0.0
06:14 10.0 9.9 99 1028.7 11.4 SE 15.2 0.0 0.0
06:15 10.1 10.0 99 1028.6 9.8 SE 15.2 0.0 0.0
06:16 10.1 10.0 99 1028.6 10.7 S 15.2 0.0 0.0
06:17 10.1 10.0 99 1028.5 11.4 S 15.2 0.0 0.0
06:18 10.1 10.0 99 1028.5 12.1 SE 13.6 0.0 0.0
06:19 10.1 10.0 99 1028.5 13.0 SE 13.6 0.0 0.0
06:20 10.1 10.0 99 1028.6 10.7 WNW 13.6 0.0 0.0
06:21 10.1 10.0 99 1028.5 10.7 S 13.6 0.0 0.0
06:22 10.1 10.0 99 1028.5 13.0 S 13.6 0.0 0.0
06:22 10.1 10.0 99 1028.5 13.0 S 13.6 0.0 0.0
06:23 10.1 10.0 99 1028.6 11.4 SE 13.6 0.0 0.0
06:24 10.1 10.0 99 1028.6 9.8 S 13.6 0.0 0.0
06:25 10.1 10.0 99 1028.5 9.2 WSW 13.6 0.0 0.0
06:27 10.1 10.0 99 1028.5 14.5 S 14.5 0.0 0.0
06:28 10.1 10.0 99 1028.5 10.7 SW 14.5 0.0 0.0
06:29 10.1 9.8 98 1028.5 14.5 S 14.5 0.0 0.0
06:30 10.1 9.8 98 1028.5 10.7 S 14.5 0.0 0.0
06:31 10.1 9.8 98 1028.5 12.1 S 14.5 0.0 0.0
06:32 10.1 9.8 98 1028.5 8.3 S 14.5 0.0 0.0
06:33 10.1 9.8 98 1028.5 10.7 SE 14.5 0.0 0.0
06:34 10.1 9.8 98 1028.5 10.7 SE 14.5 0.0 0.0
06:35 10.1 9.6 97 1028.4 11.4 S 14.5 0.0 0.0
06:36 10.1 9.6 97 1028.5 10.7 SW 14.5 0.0 0.0
06:37 10.1 9.6 97 1028.5 11.4 S 14.5 0.0 0.0
06:38 10.1 9.6 97 1028.5 15.9 SE 15.9 0.0 0.0
06:39 10.1 9.6 97 1028.4 15.2 SE 15.9 0.0 0.0
06:39 10.1 9.6 97 1028.4 15.2 SE 15.9 0.0 0.0
06:40 10.1 9.6 97 1028.6 14.5 S 15.9 0.0 0.0
06:41 10.1 9.5 96 1028.5 13.0 S 15.9 0.0 0.0
06:42 10.1 9.5 96 1028.5 12.1 S 15.9 0.0 0.0
06:44 10.1 9.5 96 1028.4 13.6 S 15.9 0.0 0.0
06:45 10.1 9.5 96 1028.4 10.7 S 15.9 0.0 0.0
06:46 10.1 9.5 96 1028.3 18.3 S 18.3 0.0 0.0
06:47 10.1 9.5 96 1028.2 12.1 S 18.3 0.0 0.0
06:48 10.1 9.5 96 1028.5 13.0 S 18.3 0.0 0.0
06:49 10.1 9.6 97 1028.4 15.2 W 18.3 0.0 0.0
06:50 10.1 9.6 97 1028.4 12.1 SE 18.3 0.0 0.0
06:51 10.1 9.6 97 1028.4 15.9 SE 18.3 0.0 0.0
06:52 10.1 9.6 97 1028.4 13.0 S 18.3 0.0 0.0
06:53 10.1 9.6 97 1028.3 14.5 SE 18.3 0.0 0.0
06:54 10.1 9.6 97 1028.4 13.6 S 18.3 0.0 0.0
06:54 10.1 9.6 97 1028.4 13.6 S 18.3 0.0 0.0
06:55 10.1 9.6 97 1028.3 13.0 SE 18.3 0.0 0.0
06:56 10.1 9.6 97 1028.2 13.6 S 15.9 0.0 0.0
06:57 10.1 9.6 97 1028.3 11.4 SE 15.9 0.0 0.0
06:58 10.1 9.6 97 1028.3 17.4 S 17.4 0.0 0.0
07:00 10.1 9.6 97 1028.2 15.9 S 17.4 0.0 0.0
07:01 10.1 9.6 97 1028.2 11.4 S 17.4 0.0 0.0
07:02 10.1 9.6 97 1028.2 15.2 S 17.4 0.0 0.0
07:03 10.1 9.6 97 1028.3 9.2 S 17.4 0.0 0.0
07:04 10.1 9.6 97 1028.2 13.6 SE 17.4 0.0 0.0
07:05 10.1 9.6 97 1028.1 10.7 SE 17.4 0.0 0.0
07:05 10.1 9.6 97 1028.1 10.7 SE 17.4 0.0 0.0
07:07 10.1 9.6 97 1028.2 10.7 SE 17.4 0.0 0.0
07:08 10.1 9.6 97 1028.2 13.0 S 15.9 0.0 0.0
07:08 10.1 9.6 97 1028.2 13.0 S 15.9 0.0 0.0
07:10 10.1 9.6 97 1028.2 9.8 SE 15.9 0.0 0.0
07:10 10.1 9.6 97 1028.2 9.8 SE 15.9 0.0 0.0
07:11 10.1 9.6 97 1028.1 12.1 S 15.2 0.0 0.0
07:13 10.1 9.6 97 1028.0 13.0 S 15.2 0.0 0.0
07:14 10.1 9.6 97 1028.0 13.0 S 15.2 0.0 0.0
07:15 10.1 9.6 97 1028.2 11.4 S 14.5 0.0 0.0
07:16 10.1 9.6 97 1028.1 16.8 SE 16.8 0.0 0.0
07:17 10.1 9.6 97 1028.2 14.5 S 16.8 0.0 0.0
07:18 10.1 9.6 97 1028.2 13.6 S 16.8 0.0 0.0
07:19 10.1 9.6 97 1028.0 13.0 S 16.8 0.0 0.0
07:19 10.1 9.6 97 1028.0 13.0 S 16.8 0.0 0.0
07:20 10.1 9.6 97 1028.2 10.7 S 16.8 0.0 0.0
07:21 10.1 9.6 97 1028.0 9.2 S 16.8 0.0 0.0
07:22 10.1 9.6 97 1028.2 13.0 SE 16.8 0.0 0.0
07:23 10.1 9.6 97 1028.0 13.6 S 16.8 0.0 0.0
07:25 10.1 9.6 97 1028.0 12.1 S 16.8 0.0 0.0
07:26 10.1 9.6 97 1028.0 14.5 S 16.8 0.0 0.0
07:27 10.1 9.6 97 1028.1 12.1 S 14.5 0.0 0.0
07:28 10.1 9.6 97 1028.1 13.6 SE 14.5 0.0 0.0
07:29 10.1 9.6 97 1028.2 14.5 NE 14.5 0.0 0.0
07:30 10.1 9.6 97 1028.2 14.5 N 14.5 0.0 0.0
07:31 10.1 9.6 97 1028.2 13.0 S 14.5 0.0 0.0
07:32 10.1 9.6 97 1028.2 14.5 S 14.5 0.0 0.0
07:33 10.1 9.6 97 1028.1 13.0 S 15.2 0.0 0.0
07:34 10.1 9.6 97 1028.1 13.0 S 15.2 0.0 0.0
07:35 10.1 9.6 97 1028.1 13.6 W 15.2 0.0 0.0
07:36 10.1 9.6 97 1028.1 14.5 S 15.2 0.0 0.0
07:37 10.2 9.7 97 1028.3 13.6 S 15.9 0.0 0.0
07:38 10.1 9.6 97 1028.2 9.2 SE 15.9 0.0 0.0
07:39 10.1 9.6 97 1028.2 9.2 SE 15.9 0.0 0.0
07:40 10.1 9.6 97 1028.2 15.9 S 15.9 0.0 0.0
07:41 10.1 9.6 97 1028.2 13.6 S 15.9 0.0 0.0
07:42 10.1 9.6 97 1028.1 11.4 S 15.9 0.0 0.0
07:43 10.1 9.6 97 1028.1 14.5 S 15.9 0.0 0.0
07:44 10.1 9.6 97 1028.1 14.5 S 15.9 0.0 0.0
07:45 10.2 9.7 97 1028.1 9.8 S 15.9 0.0 0.0
07:46 10.1 9.6 97 1028.2 8.3 S 15.9 0.0 0.0
07:47 10.1 9.6 97 1028.2 14.5 SE 15.9 0.0 0.0
07:48 10.1 9.6 97 1028.2 12.1 S 15.9 0.0 0.0
07:49 10.1 9.6 97 1028.1 16.8 SE 16.8 0.0 0.0
07:50 10.1 9.6 97 1028.1 17.4 S 17.4 0.0 0.0
07:51 10.1 9.6 97 1028.2 17.4 SW 17.4 0.0 0.0
07:52 10.2 9.7 97 1028.1 14.5 S 17.4 0.0 0.0
07:53 10.2 9.7 97 1028.1 15.2 S 17.4 0.0 0.0
07:54 10.2 9.7 97 1028.1 14.5 NW 17.4 0.0 0.0
07:55 10.2 9.7 97 1028.1 12.1 S 17.4 0.0 0.0
07:56 10.2 9.7 97 1028.0 13.0 NE 17.4 0.0 0.0
07:57 10.2 9.7 97 1028.0 15.9 S 18.3 0.0 0.0
07:58 10.2 9.7 97 1028.0 15.9 S 18.3 0.0 0.0
07:59 10.2 9.7 97 1028.1 19.7 S 19.7 0.0 0.0
08:00 10.2 9.7 97 1028.0 15.2 S 19.7 0.0 0.0
08:01 10.2 9.7 97 1028.1 16.8 S 19.7 0.0 0.0
08:02 10.2 9.7 97 1028.1 16.8 S 19.7 0.0 0.0
08:03 10.2 9.7 97 1028.1 13.0 S 19.7 0.0 0.0
08:04 10.2 9.7 97 1027.9 15.9 S 19.7 0.0 0.0
08:04 10.2 9.7 97 1027.9 15.9 S 19.7 0.0 0.0
08:06 10.2 9.7 97 1027.9 18.3 S 19.7 0.0 0.0
08:06 10.2 9.7 97 1027.9 18.3 S 19.7 0.0 0.0
08:08 10.2 9.7 97 1028.0 19.0 SE 19.7 0.0 0.0
08:09 10.2 9.7 97 1028.0 19.0 S 19.0 0.0 0.0
08:09 10.2 9.7 97 1028.0 19.0 S 19.0 0.0 0.0
08:11 10.2 9.7 97 1027.9 13.0 SE 19.0 0.0 0.0
08:12 10.2 9.7 97 1028.0 15.2 SE 19.0 0.0 0.0
08:12 10.2 9.7 97 1028.0 15.2 SE 19.0 0.0 0.0
08:13 10.2 9.7 97 1028.1 15.2 S 19.0 0.0 0.0
08:14 10.2 9.7 97 1028.0 18.3 SW 19.0 0.0 0.0
08:15 10.2 9.7 97 1028.0 20.6 S 20.6 0.0 0.0
08:16 10.2 9.7 97 1028.0 14.5 NW 20.6 0.0 0.0
08:17 10.2 9.7 97 1027.9 11.4 S 20.6 0.0 0.0
08:18 10.2 9.7 97 1028.0 16.8 SE 20.6 0.0 0.0
08:19 10.2 9.7 97 1027.9 13.0 S 20.6 0.0 0.0
08:20 10.2 9.7 97 1028.1 15.2 E 20.6 0.0 0.0
08:21 10.2 9.7 97 1028.1 18.3 S 20.6 0.0 0.0
08:23 10.2 9.7 97 1028.0 15.9 S 20.6 0.0 0.0
08:24 10.2 9.7 97 1027.9 16.8 S 20.6 0.0 0.0
08:25 10.2 9.7 97 1028.1 15.9 S 20.6 0.0 0.0
08:26 10.2 9.7 97 1028.0 13.6 S 18.3 0.0 0.0
08:27 10.2 9.7 97 1028.0 13.6 SW 18.3 0.0 0.0
08:28 10.2 9.7 97 1028.0 14.5 S 18.3 0.0 0.0
08:29 10.2 9.7 97 1028.0 11.4 S 18.3 0.0 0.0
08:30 10.2 9.7 97 1027.9 13.0 SW 18.3 0.0 0.0
08:31 10.2 9.7 97 1028.0 15.2 S 18.3 0.0 0.0
08:32 10.2 9.9 98 1028.0 15.2 NE 17.4 0.0 0.0
08:33 10.2 9.9 98 1028.0 17.4 SE 17.4 0.0 0.0
08:34 10.2 9.9 98 1027.9 14.5 S 17.4 0.0 0.0
08:35 10.2 9.9 98 1028.0 16.8 SE 17.4 0.0 0.0
08:36 10.2 9.9 98 1028.1 13.0 S 17.4 0.0 0.0
08:37 10.2 9.9 98 1028.1 14.5 S 17.4 0.0 0.0
08:38 10.2 9.9 98 1028.0 14.5 S 17.4 0.0 0.0
08:39 10.2 9.9 98 1027.9 13.0 S 17.4 0.0 0.0
08:40 10.2 9.9 98 1027.9 10.7 NE 17.4 0.0 0.0
08:41 10.2 9.9 98 1027.7 10.7 SE 17.4 0.0 0.0
08:42 10.2 9.9 98 1027.9 10.7 S 17.4 0.0 0.0
08:43 10.2 9.9 98 1027.9 13.0 S 16.8 0.0 0.0
08:44 10.2 9.9 98 1027.7 12.1 S 16.8 0.0 0.0
08:45 10.2 9.9 98 1027.7 13.6 S 16.8 0.0 0.0
08:46 10.2 10.1 99 1027.7 9.8 S 14.5 0.0 0.0
08:47 10.2 10.1 99 1027.6 13.0 S 14.5 0.0 0.0
08:48 10.2 10.1 99 1027.7 9.8 NW 13.6 0.0 0.0
08:49 10.2 10.1 99 1027.7 9.8 SE 13.6 0.0 0.0
08:50 10.3 10.2 99 1027.7 9.2 S 13.6 0.0 0.0
08:51 10.2 10.1 99 1027.5 11.4 S 13.6 0.0 0.0
08:52 10.2 10.1 99 1027.6 13.0 SE 13.6 0.0 0.0
08:53 10.3 10.2 99 1027.6 13.6 S 13.6 0.0 0.0
08:54 10.2 10.1 99 1027.5 14.5 S 14.5 0.0 0.0
08:55 10.3 10.2 99 1027.4 15.9 S 15.9 0.0 0.0
08:56 10.3 10.2 99 1027.4 16.8 S 16.8 0.0 0.0
08:57 10.3 10.2 99 1027.6 13.0 S 16.8 0.0 0.0
08:57 10.3 10.2 99 1027.6 13.0 S 16.8 0.0 0.0
08:59 10.3 10.2 99 1027.4 14.5 S 16.8 0.0 0.0
08:59 10.3 10.2 99 1027.4 14.5 S 16.8 0.0 0.0
09:00 10.3 10.2 99 1027.4 14.5 S 16.8 0.0 0.0
09:01 10.3 10.2 99 1027.6 18.3 SE 18.3 0.0 0.0
09:02 10.3 10.2 99 1027.3 16.8 SE 18.3 0.0 0.0
09:03 10.3 10.2 99 1027.4 9.2 S 18.3 0.0 0.0
09:04 10.3 10.2 99 1027.4 9.8 S 18.3 0.0 0.0
09:06 10.3 10.2 99 1027.2 15.9 S 18.3 0.0 0.0
09:07 10.3 10.2 99 1027.2 11.4 SE 18.3 0.0 0.0
09:07 10.3 10.2 99 1027.2 11.4 SE 18.3 0.0 0.0
09:08 10.4 10.3 99 1027.3 14.5 S 18.3 0.0 0.0
09:10 10.3 10.2 99 1027.2 13.6 S 18.3 0.0 0.0
09:10 10.3 10.2 99 1027.2 13.6 S 18.3 0.0 0.0
09:11 10.4 10.3 99 1027.2 11.4 S 18.3 0.0 0.0
09:13 10.4 10.3 99 1027.3 13.6 WSW 15.9 0.0 0.0
09:14 10.4 10.3 99 1027.3 13.0 SE 15.9 0.0 0.0
09:15 10.4 10.3 99 1027.2 12.1 SE 15.9 0.0 0.0
09:16 10.4 10.3 99 1027.1 10.7 SW 15.9 0.0 0.0
09:17 10.4 10.3 99 1027.2 11.4 S 15.9 0.0 0.0
09:18 10.4 10.3 99 1026.9 12.1 SE 15.9 0.0 0.0
09:19 10.4 10.3 99 1027.1 11.4 S 15.9 0.0 0.0
09:19 10.4 10.3 99 1027.1 11.4 S 15.9 0.0 0.0
09:20 10.4 10.3 99 1027.0 15.2 S 15.9 0.0 0.0
09:22 10.4 10.3 99 1027.2 11.4 S 15.2 0.0 0.0
09:22 10.4 10.3 99 1027.2 11.4 S 15.2 0.0 0.0
09:23 10.4 10.3 99 1027.1 14.5 S 15.2 0.0 0.0
09:25 10.4 10.3 99 1027.2 14.5 S 15.2 0.0 0.0
09:26 10.4 10.3 99 1027.1 16.8 SE 16.8 0.0 0.0
09:27 10.5 10.4 99 1027.2 13.6 SE 16.8 0.0 0.0
09:28 10.5 10.4 99 1027.2 15.2 SE 16.8 0.0 0.0
09:29 10.4 10.3 99 1027.3 14.5 S 16.8 0.0 0.0
09:30 10.5 10.4 99 1027.2 9.2 NW 16.8 0.0 0.0
09:31 10.5 10.4 99 1027.3 9.8 S 16.8 0.0 0.0
09:32 10.5 10.4 99 1027.2 10.7 S 16.8 0.0 0.0
09:33 10.5 10.4 99 1027.1 9.8 S 16.8 0.0 0.0
09:34 10.5 10.4 99 1027.1 11.4 SE 16.8 0.0 0.0
09:35 10.5 10.4 99 1027.1 11.4 S 16.8 0.0 0.0
09:35 10.5 10.4 99 1027.1 11.4 S 16.8 0.0 0.0
09:36 10.5 10.4 99 1027.2 14.5 SE 15.2 0.0 0.0
09:37 10.5 10.2 98 1027.1 15.2 SE 15.2 0.0 0.0
09:38 10.5 10.2 98 1027.2 13.0 S 15.2 0.0 0.0
09:39 10.5 10.2 98 1027.2 13.6 SE 15.2 0.0 0.0
09:40 10.5 10.2 98 1027.1 12.1 SE 16.8 0.0 0.0
09:41 10.5 10.2 98 1027.1 12.1 S 16.8 0.0 0.0
09:42 10.5 10.2 98 1027.1 13.6 SE 16.8 0.0 0.0
09:43 10.5 10.2 98 1027.2 11.4 W 16.8 0.0 0.0
09:44 10.5 10.2 98 1027.2 12.1 S 16.8 0.0 0.0
09:45 10.5 10.2 98 1027.1 12.1 SE 16.8 0.0 0.0
09:46 10.5 10.2 98 1027.3 16.8 S 16.8 0.0 0.0
09:48 10.5 10.2 98 1027.1 12.1 S 16.8 0.0 0.0
09:49 10.5 10.2 98 1027.0 13.6 SW 16.8 0.0 0.0
09:50 10.5 10.2 98 1027.1 12.1 S 16.8 0.0 0.0
09:51 10.6 10.3 98 1027.2 15.2 SE 16.8 0.0 0.0
09:52 10.5 10.0 97 1027.1 11.4 S 16.8 0.0 0.0
09:53 10.6 10.1 97 1027.1 16.8 S 16.8 0.0 0.0
09:54 10.6 10.1 97 1027.1 16.8 S 16.8 0.0 0.0
09:55 10.6 10.1 97 1027.1 16.8 S 18.3 0.0 0.0
09:56 10.6 10.1 97 1027.0 14.5 SE 18.3 0.0 0.0
09:57 10.6 10.0 96 1027.1 14.5 S 18.3 0.0 0.0
09:58 10.6 10.0 96 1027.1 15.9 S 18.3 0.0 0.0
09:59 10.6 10.0 96 1027.1 19.0 S 19.0 0.0 0.0
10:00 10.6 10.0 96 1027.1 15.9 WNW 19.0 0.0 0.0
10:01 10.6 10.0 96 1027.1 15.9 WNW 19.0 0.0 0.0
10:02 10.6 10.0 96 1027.1 12.1 S 19.0 0.0 0.0
10:03 10.6 10.0 96 1027.1 21.3 S 21.3 0.0 0.0
10:04 10.6 9.8 95 1027.0 15.2 S 21.3 0.0 0.0
10:05 10.7 9.9 95 1027.0 14.5 S 21.3 0.0 0.0
10:05 10.7 9.9 95 1027.0 14.5 S 21.3 0.0 0.0
10:06 10.7 9.9 95 1027.1 12.1 SE 21.3 0.0 0.0
10:08 10.7 9.9 95 1026.9 13.0 WNW 21.3 0.0 0.0
10:09 10.7 9.9 95 1027.0 13.6 S 21.3 0.0 0.0
10:09 10.7 9.9 95 1027.0 13.6 S 21.3 0.0 0.0
10:10 10.7 10.1 96 1027.0 15.2 W 21.3 0.0 0.0
10:12 10.7 10.1 96 1026.8 15.9 S 21.3 0.0 0.0
10:13 10.7 10.1 96 1027.0 15.2 SW 15.9 0.0 0.0
10:13 10.7 10.1 96 1027.0 15.2 SW 15.9 0.0 0.0
10:14 10.7 10.1 96 1026.8 15.9 S 15.9 0.0 0.0
10:15 10.8 10.2 96 1027.0 14.5 S 15.9 0.0 0.0
10:16 10.8 10.2 96 1026.9 13.6 S 15.9 0.0 0.0
10:17 10.8 10.2 96 1027.0 13.6 S 15.9 0.0 0.0
10:19 10.8 10.2 96 1026.9 17.4 SE 17.4 0.0 0.0
10:20 10.8 10.2 96 1027.0 15.9 SE 17.4 0.0 0.0
10:21 10.8 10.2 96 1027.0 13.6 S 17.4 0.0 0.0
10:22 10.9 10.3 96 1027.0 9.8 S 17.4 0.0 0.0
10:23 10.8 10.2 96 1027.0 15.9 SE 17.4 0.0 0.0
10:24 10.9 10.3 96 1026.9 13.0 S 17.4 0.0 0.0
10:25 10.9 10.4 97 1026.9 16.8 S 17.4 0.0 0.0
10:26 10.9 10.4 97 1026.9 17.4 S 17.4 0.0 0.0
10:27 10.9 10.4 97 1027.0 21.3 S 21.3 0.0 0.0
10:28 10.9 10.4 97 1027.0 20.6 S 21.3 0.0 0.0
10:29 10.9 10.4 97 1026.9 19.7 S 21.3 0.0 0.0
10:30 10.9 10.6 98 1026.9 15.9 SW 21.3 0.0 0.0
10:31 11.0 10.7 98 1026.9 19.0 SW 21.3 0.0 0.0
10:32 11.0 10.7 98 1027.0 15.2 S 21.3 0.0 0.0
10:33 11.0 10.9 99 1026.9 15.2 S 21.3 0.0 0.0
10:34 11.0 10.9 99 1026.9 15.2 S 21.3 0.0 0.0
10:35 11.0 10.9 99 1027.1 13.0 S 21.3 0.0 0.0
10:36 11.0 10.9 99 1027.0 15.9 S 21.3 0.0 0.0
10:37 11.0 10.9 99 1026.9 15.9 SW 21.3 0.0 0.0
10:38 11.0 10.9 99 1027.0 20.6 S 20.6 0.0 0.0
10:39 11.0 10.9 99 1026.9 19.7 S 20.6 0.0 0.0
10:39 11.0 10.9 99 1026.9 19.7 S 20.6 0.0 0.0
10:40 11.0 10.9 99 1026.9 17.4 S 20.6 0.0 0.0
10:42 11.1 11.0 99 1026.9 15.2 S 20.6 0.0 0.0
10:43 11.1 11.0 99 1026.9 14.5 S 20.6 0.0 0.0
10:44 11.0 10.9 99 1026.9 19.7 S 20.6 0.0 0.0
10:45 11.0 10.9 99 1026.8 19.0 S 20.6 0.0 0.0
10:46 11.0 10.9 99 1026.7 16.8 S 20.6 0.0 0.0
10:47 11.0 10.9 99 1027.0 19.0 SE 20.6 0.0 0.0
10:48 11.0 10.9 99 1026.8 23.5 S 23.5 0.0 0.0
10:49 11.0 10.9 99 1026.8 22.8 SE 23.5 0.0 0.0
10:50 11.0 10.9 99 1026.8 15.9 SE 23.5 0.0 0.0
10:51 11.0 10.9 99 1026.8 15.2 SE 23.5 0.0 0.0
10:52 11.0 10.9 99 1026.9 18.3 S 23.5 0.0 0.0
10:53 11.0 10.9 99 1027.0 14.5 S 23.5 0.0 0.0
10:54 11.0 10.9 99 1027.0 14.5 S 23.5 0.0 0.0
10:55 11.0 10.9 99 1026.9 15.2 S 23.5 0.0 0.0
10:56 11.0 10.9 99 1027.0 23.5 S 25.1 0.0 0.0
10:57 11.0 10.9 99 1027.0 22.8 SE 25.1 0.0 0.0
10:58 11.0 10.9 99 1027.1 21.3 S 25.1 0.0 0.0
10:59 11.0 10.9 99 1027.0 17.4 SE 25.1 0.0 0.0
11:00 11.0 10.9 99 1026.9 17.4 SE 25.1 0.0 0.0
11:01 11.0 10.9 99 1026.9 15.9 S 25.1 0.0 0.0
11:02 11.0 10.9 99 1026.8 17.4 SW 25.1 0.0 0.0
11:03 11.0 10.9 99 1026.7 14.5 S 25.1 0.0 0.0
11:04 11.0 10.9 99 1026.6 13.6 SE 25.1 0.0 0.0
11:04 11.0 10.9 99 1026.6 13.6 SE 25.1 0.0 0.0
11:05 11.0 10.9 99 1026.6 16.8 NNE 25.1 0.0 0.0
11:07 11.0 10.9 99 1026.8 20.6 SW 22.8 0.0 0.0
11:07 11.0 10.9 99 1026.8 20.6 SW 22.8 0.0 0.0
11:08 11.0 10.9 99 1026.6 11.4 S 20.6 0.0 0.0
11:10 11.0 10.9 99 1026.6 22.1 S 22.1 0.0 0.0
11:10 11.0 10.9 99 1026.6 22.1 S 22.1 0.0 0.0
11:11 11.0 10.9 99 1026.6 19.0 SW 22.1 0.0 0.0
11:13 11.0 10.9 99 1026.7 16.8 SE 22.1 0.0 0.0
11:14 11.0 10.9 99 1026.7 16.8 SE 22.1 0.0 0.0
11:15 11.0 10.9 99 1026.5 17.4 SE 22.1 0.0 0.0
11:15 11.0 10.9 99 1026.5 17.4 SE 22.1 0.0 0.0
11:16 11.0 10.9 99 1026.5 24.4 SE 24.4 0.0 0.0
11:17 11.0 10.9 99 1026.6 19.0 S 24.4 0.0 0.0
11:18 11.0 10.9 99 1026.4 18.3 NNE 24.4 0.0 0.0
11:19 11.0 10.9 99 1026.5 21.3 NW 24.4 0.0 0.0
11:20 11.0 10.9 99 1026.4 22.8 S 24.4 0.0 0.0
11:22 11.0 10.9 99 1026.4 22.1 S 24.4 0.0 0.0
11:23 11.0 10.9 99 1026.4 22.1 SE 24.4 0.0 0.0
11:24 11.0 10.9 99 1026.2 22.1 NE 24.4 0.0 0.0
11:25 11.0 10.9 99 1026.2 22.1 S 24.4 0.0 0.0
11:26 11.0 10.9 99 1026.2 22.8 S 24.4 0.0 0.0
11:27 11.0 10.9 99 1026.2 21.3 S 22.8 0.0 0.0
11:28 11.0 10.9 99 1026.2 18.3 W 22.8 0.0 0.0
11:29 11.0 10.9 99 1026.2 15.2 S 22.8 0.0 0.0
11:30 11.0 10.9 99 1026.1 13.6 NNE 22.8 0.0 0.0
11:31 11.0 10.9 99 1026.1 19.0 S 22.8 0.0 0.0
11:32 11.0 10.9 99 1026.2 20.6 S 22.8 0.0 0.0
11:33 11.0 10.9 99 1026.2 17.4 S 22.8 0.0 0.0
11:34 11.1 11.0 99 1026.0 22.1 SE 22.8 0.0 0.0
11:35 11.0 10.9 99 1026.1 21.3 SE 22.8 0.0 0.0
11:36 11.1 11.0 99 1026.1 15.2 S 22.8 0.0 0.0
11:37 11.1 11.0 99 1025.9 20.6 S 22.1 0.0 0.0
11:38 11.1 11.0 99 1026.0 20.6 SE 22.1 0.0 0.0
11:39 11.1 11.0 99 1026.0 18.3 NNE 22.1 0.0 0.0
11:40 11.1 11.0 99 1026.1 15.2 SE 22.1 0.0 0.0
11:41 11.1 11.0 99 1025.9 15.9 S 22.1 0.0 0.0
11:41 11.1 11.0 99 1025.9 15.9 S 22.1 0.0 0.0
11:42 11.1 11.0 99 1026.0 16.8 SE 22.1 0.0 0.0
11:43 11.1 11.0 99 1026.1 11.4 S 22.1 0.0 0.0
11:44 11.1 11.0 99 1025.9 17.4 SE 21.3 0.0 0.0
11:45 11.1 11.0 99 1025.9 19.0 S 20.6 0.0 0.0
11:46 11.1 11.0 99 1025.9 22.8 S 22.8 0.0 0.0
11:47 11.1 11.0 99 1025.8 18.3 WSW 22.8 0.0 0.0
11:48 11.1 11.0 99 1025.7 15.9 S 22.8 0.0 0.0
11:50 11.1 11.0 99 1025.8 19.7 SW 22.8 0.0 0.0
11:51 11.1 11.0 99 1025.7 18.3 S 22.8 0.0 0.0
11:52 11.1 11.0 99 1025.8 19.0 S 22.8 0.0 0.0
11:53 11.1 11.0 99 1025.7 22.1 SE 22.8 0.0 0.0
11:54 11.1 11.0 99 1025.7 17.4 SE 22.8 0.0 0.0
11:55 11.1 11.0 99 1025.8 17.4 SE 22.8 0.0 0.0
11:56 11.1 11.0 99 1025.7 16.8 S 22.8 0.0 0.0
11:57 11.1 11.0 99 1025.7 19.7 S 22.8 0.0 0.0
11:58 11.1 11.0 99 1025.7 17.4 WNW 22.8 0.0 0.0
11:59 11.1 11.0 99 1025.5 20.6 S 22.8 0.0 0.0
12:00 11.1 11.0 99 1025.6 20.6 S 22.8 0.0 0.0
12:00 11.1 11.0 99 1025.6 20.6 S 22.8 0.0 0.0
12:01 11.2 11.1 99 1025.5 21.3 S 22.8 0.0 0.0
12:02 11.2 11.1 99 1025.7 16.8 S 22.8 0.0 0.0
12:03 11.2 11.1 99 1025.7 17.4 S 22.8 0.0 0.0
12:04 11.2 11.1 99 1025.5 15.9 W 22.8 0.0 0.0
12:06 11.2 11.1 99 1025.5 22.1 SE 22.8 0.0 0.0
12:07 11.2 11.1 99 1025.5 23.5 W 23.5 0.0 0.0
12:07 11.2 11.1 99 1025.5 23.5 W 23.5 0.0 0.0
12:08 11.2 11.1 99 1025.6 18.3 S 23.5 0.0 0.0
12:10 11.2 11.1 99 1025.3 22.1 SE 23.5 0.0 0.0
12:11 11.2 11.1 99 1025.2 17.4 SE 23.5 0.0 0.0
12:11 11.2 11.1 99 1025.2 17.4 SE 23.5 0.0 0.0
12:13 11.2 11.1 99 1025.5 26.6 SE 26.6 0.0 0.0
12:14 11.2 11.1 99 1025.5 15.9 S 26.6 0.0 0.0
12:15 11.2 11.1 99 1025.4 17.4 NW 26.6 0.0 0.0
12:16 11.2 11.1 99 1025.5 25.1 SE 26.6 0.0 0.0
12:17 11.2 11.1 99 1025.5 23.5 S 26.6 0.0 0.0
12:18 11.2 11.1 99 1025.4 19.0 S 26.6 0.0 0.0
12:19 11.2 11.1 99 1025.4 22.1 S 26.6 0.0 0.0
12:19 11.2 11.1 99 1025.4 22.1 S 26.6 0.0 0.0
12:20 11.2 11.1 99 1025.5 28.9 NNE 28.9 0.0 0.0
12:21 11.1 11.0 99 1025.2 24.4 S 28.9 0.0 0.0
12:22 11.1 11.0 99 1025.3 25.1 SE 28.9 0.0 0.0
12:23 11.1 11.0 99 1025.4 19.0 S 28.9 0.0 0.0
12:24 11.1 11.0 99 1025.3 23.5 WSW 28.9 0.0 0.0
12:25 11.1 11.0 99 1025.4 21.3 S 28.9 0.0 0.0
12:27 11.1 11.0 99 1025.2 21.3 S 28.9 0.0 0.0
12:28 11.1 11.0 99 1025.2 15.9 S 28.9 0.0 0.0
12:29 11.1 11.0 99 1025.2 25.1 S 28.9 0.0 0.0
12:30 11.1 11.0 99 1025.2 18.3 S 28.9 0.0 0.0
12:31 11.1 11.0 99 1025.2 19.0 S 25.1 0.0 0.0
12:32 11.0 10.9 99 1025.2 14.5 S 25.1 0.0 0.0
12:33 11.0 10.9 99 1025.1 18.3 S 25.1 0.0 0.0
12:34 11.1 11.0 99 1025.3 20.6 S 25.1 0.0 0.0
12:35 11.0 10.9 99 1025.2 23.5 S 25.1 0.0 0.0
12:36 11.0 10.9 99 1025.0 20.6 S 25.1 0.0 0.0
12:37 11.0 10.9 99 1025.2 19.7 SE 25.1 0.0 0.0
12:38 11.1 11.0 99 1025.0 20.6 S 25.1 0.0 0.0
12:39 11.0 10.9 99 1025.0 22.8 S 23.5 0.0 0.0
12:39 11.0 10.9 99 1025.0 22.8 S 23.5 0.0 0.0
12:40 11.1 11.0 99 1024.9 23.5 SE 23.5 0.0 0.0
12:41 11.1 11.0 99 1024.9 22.8 S 23.5 0.0 0.0
12:42 11.1 11.0 99 1024.9 25.9 S 25.9 0.0 0.0
12:43 11.1 11.0 99 1025.0 23.5 S 25.9 0.0 0.0
12:44 11.0 10.9 99 1024.9 23.5 SE 25.9 0.0 0.0
12:45 11.0 10.9 99 1024.9 21.3 SE 25.9 0.0 0.0
12:46 11.0 10.9 99 1024.9 27.3 S 27.3 0.0 0.0
12:47 11.0 10.9 99 1024.8 22.1 S 27.3 0.0 0.0
12:48 11.0 10.9 99 1024.8 18.3 SW 27.3 0.0 0.0
12:49 11.0 10.9 99 1024.9 15.9 SW 27.3 0.0 0.0
12:50 11.0 10.9 99 1024.8 19.7 S 27.3 0.0 0.0
12:51 11.0 10.9 99 1024.7 22.1 WNW 27.3 0.0 0.0
12:52 11.0 10.9 99 1025.0 22.8 S 27.3 0.0 0.0
12:54 11.0 10.9 99 1024.8 22.1 SE 27.3 0.0 0.0
12:55 11.0 10.9 99 1024.7 19.0 S 27.3 0.0 0.0
12:56 11.0 10.9 99 1024.7 21.3 S 27.3 0.0 0.0
12:57 11.0 10.9 99 1024.6 25.9 S 27.3 0.0 0.0
12:58 11.0 10.9 99 1024.6 24.4 S 28.2 0.0 0.0
12:59 11.0 10.9 99 1024.7 21.3 S 28.2 0.0 0.0
13:00 11.0 10.9 99 1024.7 19.0 S 28.2 0.0 0.0
13:01 11.0 10.9 99 1024.7 19.0 S 28.2 0.0 0.0
13:02 11.0 10.9 99 1024.6 19.0 S 28.2 0.0 0.0
13:03 11.0 10.9 99 1024.5 19.0 S 28.2 0.0 0.0
13:04 11.0 10.9 99 1024.7 19.0 S 28.2 0.0 0.0
13:05 11.0 10.9 99 1024.5 17.4 SE 28.2 0.0 0.0
13:06 11.0 10.9 99 1024.4 14.5 S 28.2 0.0 0.0
13:06 11.0 10.9 99 1024.4 14.5 S 28.2 0.0 0.0
13:07 11.0 10.9 99 1024.4 23.5 SE 32.7 0.0 0.0
13:09 11.0 10.9 99 1024.6 18.3 SE 32.7 0.0 0.0
13:09 11.0 10.9 99 1024.6 18.3 SE 32.7 0.0 0.0
13:11 11.0 10.9 99 1024.3 19.0 S 32.7 0.0 0.0
13:12 11.0 10.9 99 1024.4 14.5 SE 32.7 0.0 0.0
13:12 11.0 10.9 99 1024.4 14.5 SE 32.7 0.0 0.0
13:13 11.0 10.9 99 1024.4 19.0 S 32.7 0.0 0.0
13:14 11.0 10.9 99 1024.4 20.6 S 32.7 0.0 0.0
13:15 11.0 10.9 99 1024.2 19.7 S 32.7 0.0 0.0
13:16 11.0 10.9 99 1024.5 16.8 S 32.7 0.0 0.0
13:17 11.0 10.9 99 1024.4 15.2 S 23.5 0.0 0.0
13:18 11.0 10.9 99 1024.2 19.7 S 22.8 0.0 0.0
13:19 11.0 10.9 99 1024.2 22.8 SE 22.8 0.0 0.0
13:20 11.0 10.9 99 1024.2 15.9 SE 22.8 0.0 0.0
13:21 11.0 10.9 99 1024.1 17.4 N 22.8 0.0 0.0
13:22 11.0 10.9 99 1024.2 24.4 S 24.4 0.0 0.0
13:23 11.0 10.9 99 1024.3 23.5 NNE 24.4 0.0 0.0
13:24 11.0 10.9 99 1024.2 25.1 S 25.1 0.0 0.0
13:25 11.0 10.9 99 1024.2 15.2 S 25.1 0.0 0.0
13:26 11.1 11.0 99 1024.2 18.3 S 25.1 0.0 0.0
13:27 11.0 10.9 99 1024.0 18.3 S 25.1 0.0 0.0
13:28 11.0 10.9 99 1024.1 13.6 NNE 25.1 0.0 0.0
13:30 11.1 11.0 99 1024.0 22.8 SE 25.1 0.0 0.0
13:31 11.1 11.0 99 1024.0 25.1 S 25.1 0.0 0.0
13:32 11.1 11.0 99 1024.1 24.4 S 25.1 0.0 0.0
13:33 11.1 11.0 99 1024.1 19.0 SE 25.1 0.0 0.0
13:34 11.1 11.0 99 1023.8 24.4 SE 25.1 0.0 0.0
13:35 11.1 11.0 99 1023.9 24.4 SE 25.1 0.0 0.0
13:36 11.1 11.0 99 1024.0 22.1 S 25.1 0.0 0.0
13:37 11.1 11.0 99 1024.0 20.6 SE 25.1 0.0 0.0
13:38 11.1 11.0 99 1023.9 23.5 NW 25.1 0.0 0.0
13:39 11.1 11.0 99 1023.9 22.8 S 25.1 0.0 0.0
13:40 11.1 11.0 99 1023.9 26.6 S 26.6 0.0 0.0
13:41 11.1 11.0 99 1023.9 19.7 SW 27.3 0.0 0.0
13:42 11.1 11.0 99 1023.9 23.5 S 27.3 0.0 0.0
13:43 11.1 11.0 99 1024.0 23.5 S 27.3 0.0 0.0
13:44 11.0 10.9 99 1023.9 19.0 S 27.3 0.0 0.0
13:45 11.0 10.9 99 1023.9 22.1 S 27.3 0.0 0.0
13:46 11.0 10.9 99 1023.7 24.4 S 27.3 0.0 0.0
13:47 11.0 10.9 99 1023.8 20.6 S 27.3 0.0 0.0
13:48 11.0 10.9 99 1023.8 21.3 S 27.3 0.0 0.0
13:49 11.0 10.9 99 1023.7 18.3 S 27.3 0.0 0.0
13:50 11.0 10.9 99 1023.7 15.2 S 27.3 0.0 0.0
13:51 11.0 10.9 99 1023.7 22.8 SE 24.4 0.0 0.0
13:52 11.0 10.9 99 1023.7 22.8 S 24.4 0.0 0.0
13:53 11.0 10.9 99 1023.6 20.6 SE 24.4 0.0 0.0
13:54 11.0 10.9 99 1023.6 21.3 S 24.4 0.0 0.0
13:55 10.9 10.8 99 1023.5 22.8 S 24.4 0.0 0.0
13:56 11.0 10.9 99 1023.5 17.4 NNW 22.8 0.0 0.0
13:57 10.9 10.8 99 1023.4 19.0 S 22.8 0.0 0.0
13:58 11.0 10.9 99 1023.5 18.3 S 22.8 0.0 0.0
13:59 10.9 10.8 99 1023.5 26.6 WNW 28.2 0.0 0.0
14:00 10.9 10.8 99 1023.4 26.6 WNW 28.2 0.0 0.0
14:01 10.9 10.8 99 1023.4 26.6 WNW 28.2 0.0 0.0
14:02 10.9 10.8 99 1023.4 26.6 WNW 28.2 0.0 0.0
14:03 10.9 10.8 99 1023.2 26.6 WNW 28.2 0.0 0.0
14:04 10.9 10.8 99 1023.4 26.6 WNW 28.2 0.0 0.0
14:05 10.9 10.8 99 1023.5 26.6 S 28.2 0.0 0.0
14:07 10.9 10.8 99 1023.4 18.3 S 28.2 0.0 0.0
14:07 10.9 10.8 99 1023.4 18.3 S 28.2 0.0 0.0
14:09 10.9 10.8 99 1023.3 20.6 S 28.2 0.0 0.0
14:09 10.9 10.8 99 1023.3 20.6 S 28.2 0.0 0.0
14:10 10.9 10.8 99 1023.3 24.4 SE 26.6 0.0 0.0
14:12 10.9 10.8 99 1023.1 16.8 S 26.6 0.0 0.0
14:12 10.9 10.8 99 1023.1 16.8 S 26.6 0.0 0.0
14:13 10.9 10.8 99 1023.2 23.5 SE 26.6 0.0 0.0
14:14 10.9 10.8 99 1023.3 22.8 SW 26.6 0.0 0.0
14:15 10.9 10.8 99 1023.1 25.9 S 25.9 0.0 0.0
14:16 10.9 10.8 99 1023.0 19.7 S 25.9 0.0 0.0
14:17 10.9 10.8 99 1023.3 21.3 S 25.9 0.0 0.0
14:18 10.9 10.8 99 1023.3 23.5 S 25.9 0.0 0.0
14:20 10.9 10.8 99 1023.0 25.1 SW 25.9 0.0 0.0
14:21 10.9 10.8 99 1023.0 25.1 S 25.9 0.0 0.0
14:22 10.9 10.8 99 1022.9 23.5 SE 25.9 0.0 0.0
14:23 10.9 10.8 99 1023.0 20.6 S 25.9 0.0 0.0
14:24 10.9 10.8 99 1022.9 21.3 S 25.9 0.0 0.0
14:25 10.9 10.8 99 1023.0 17.4 SW 25.9 0.0 0.0
14:26 10.9 10.8 99 1022.9 15.2 S 25.1 0.0 0.0
14:27 10.9 10.8 99 1023.0 18.3 S 25.1 0.0 0.0
14:28 10.9 10.8 99 1023.0 22.1 S 25.1 0.0 0.0
14:29 10.9 10.8 99 1022.8 24.4 SE 25.1 0.0 0.0
14:30 10.9 10.8 99 1023.0 24.4 NE 25.1 0.0 0.0
14:31 10.9 10.8 99 1022.9 24.4 SE 25.1 0.0 0.0
14:32 10.9 10.8 99 1022.8 18.3 S 24.4 0.0 0.0
14:33 10.9 10.8 99 1022.8 15.9 S 24.4 0.0 0.0
14:34 10.9 10.8 99 1022.9 19.0 SE 24.4 0.0 0.0
14:35 10.9 10.8 99 1022.8 22.8 NNE 24.4 0.0 0.0
14:36 10.9 10.8 99 1022.9 15.9 SE 24.4 0.0 0.0
14:37 10.9 10.8 99 1022.9 17.4 S 24.4 0.0 0.0
14:38 10.9 10.8 99 1022.9 24.4 S 24.4 0.0 0.0
14:39 10.9 10.8 99 1022.9 21.3 S 24.4 0.0 0.0
14:40 10.9 10.8 99 1022.9 18.3 S 25.9 0.0 0.0
14:41 10.9 10.8 99 1022.9 15.9 SE 25.9 0.0 0.0
14:42 10.9 10.8 99 1022.8 23.5 S 25.9 0.0 0.0
14:43 10.9 10.8 99 1022.8 19.7 S 25.9 0.0 0.0
14:44 10.9 10.8 99 1022.9 21.3 S 27.3 0.0 0.0
14:45 10.9 10.8 99 1022.8 15.9 NW 27.3 0.0 0.0
14:46 10.9 10.8 99 1022.7 19.7 S 27.3 0.0 0.0
14:47 10.9 10.8 99 1022.7 21.3 S 27.3 0.0 0.0
14:48 10.9 10.8 99 1022.6 18.3 S 27.3 0.0 0.0
14:49 10.9 10.8 99 1022.7 19.7 S 27.3 0.0 0.0
14:50 10.9 10.8 99 1022.7 26.6 S 27.3 0.0 0.0
14:51 10.9 10.8 99 1022.8 19.7 S 27.3 0.0 0.0
14:51 10.9 10.8 99 1022.8 19.7 S 27.3 0.0 0.0
14:52 10.9 10.8 99 1022.7 25.1 NW 27.3 0.0 0.0
14:53 10.9 10.8 99 1022.6 20.6 SE 27.3 0.0 0.0
14:54 10.9 10.8 99 1022.7 20.6 S 26.6 0.0 0.0
14:55 10.9 10.8 99 1022.7 18.3 SE 26.6 0.0 0.0
14:56 10.9 10.8 99 1022.7 21.3 SE 26.6 0.0 0.0
14:57 10.9 10.8 99 1022.6 22.8 N 26.6 0.0 0.0
14:58 10.9 10.8 99 1022.7 15.9 SE 26.6 0.0 0.0
14:59 10.9 10.8 99 1022.8 18.3 S 26.6 0.0 0.0
15:00 10.9 10.8 99 1022.7 18.3 S 25.1 0.0 0.0
15:01 10.9 10.8 99 1022.7 22.1 SW 25.1 0.0 0.0
15:02 10.9 10.8 99 1022.6 15.9 S 25.1 0.0 0.0
15:03 10.9 10.8 99 1022.7 20.6 S 22.8 0.0 0.0
15:04 10.9 10.8 99 1022.6 19.0 SE 22.8 0.0 0.0
15:06 10.9 10.8 99 1022.6 20.6 SE 22.8 0.0 0.0
15:06 10.9 10.8 99 1022.6 20.6 SE 22.8 0.0 0.0
15:07 10.9 10.8 99 1022.7 23.5 W 23.5 0.0 0.0
15:09 10.9 10.8 99 1022.6 22.1 S 23.5 0.0 0.0
15:09 10.9 10.8 99 1022.6 22.1 S 23.5 0.0 0.0
15:10 10.9 10.8 99 1022.5 19.0 S 23.5 0.0 0.0
15:12 10.9 10.8 99 1022.6 21.3 S 23.5 0.0 0.0
15:12 10.9 10.8 99 1022.6 21.3 S 23.5 0.0 0.0
15:13 10.9 10.8 99 1022.6 20.6 SE 23.5 0.0 0.0
15:14 10.9 10.8 99 1022.5 21.3 S 23.5 0.0 0.0
15:15 11.0 10.9 99 1022.6 22.1 S 23.5 0.0 0.0
15:16 10.9 10.8 99 1022.5 22.1 NW 23.5 0.0 0.0
15:17 11.0 10.9 99 1022.4 22.8 S 23.5 0.0 0.0
15:18 10.9 10.8 99 1022.3 21.3 S 23.5 0.0 0.0
15:19 11.0 10.9 99 1022.4 24.4 SE 24.4 0.0 0.0
15:20 11.0 10.9 99 1022.4 23.5 SE 24.4 0.0 0.0
15:22 11.0 10.9 99 1022.3 21.3 S 24.4 0.0 0.0
15:23 11.0 10.9 99 1022.5 22.1 N 24.4 0.0 0.0
15:24 11.0 10.9 99 1022.5 22.1 SE 24.4 0.0 0.0
15:25 11.0 10.9 99 1022.4 21.3 SE 24.4 0.0 0.0
15:26 10.9 10.8 99 1022.3 23.5 SE 24.4 0.0 0.0
15:27 11.0 10.9 99 1022.2 19.7 S 24.4 0.0 0.0
15:28 11.0 10.9 99 1022.2 17.4 SE 24.4 0.0 0.0
15:29 10.9 10.8 99 1022.3 18.3 SW 24.4 0.0 0.0
15:30 10.9 10.8 99 1022.3 19.0 S 23.5 0.0 0.0
15:31 10.9 10.8 99 1022.2 13.0 SE 23.5 0.0 0.0
15:32 10.9 10.8 99 1022.3 16.8 S 23.5 0.0 0.0
15:33 10.9 10.8 99 1022.2 19.7 S 25.9 0.0 0.0
15:34 10.9 10.8 99 1022.6 25.9 S 25.9 0.0 0.0
15:35 10.9 10.8 99 1022.3 21.3 S 25.9 0.0 0.0
15:36 10.9 10.8 99 1022.0 21.3 S 25.9 0.0 0.0
15:37 10.9 10.8 99 1022.1 21.3 NNW 25.9 0.0 0.0
15:37 10.9 10.8 99 1022.1 21.3 NNW 25.9 0.0 0.0
15:38 10.9 10.8 99 1022.1 24.4 SE 25.9 0.0 0.0
15:39 10.9 10.8 99 1022.1 20.6 SE 25.9 0.0 0.0
15:40 10.9 10.8 99 1022.1 22.8 NNW 25.9 0.0 0.0
15:41 10.9 10.8 99 1022.0 19.7 S 25.9 0.0 0.0
15:42 10.9 10.8 99 1022.1 19.0 W 25.9 0.0 0.0
15:43 10.9 10.8 99 1022.1 19.0 S 25.9 0.0 0.0
15:45 10.9 10.8 99 1021.9 22.1 SE 24.4 0.0 0.0
15:45 10.9 10.8 99 1021.9 22.1 SE 24.4 0.0 0.0
15:45 10.9 10.8 99 1021.9 22.1 SE 24.4 0.0 0.0
15:47 10.9 10.8 99 1021.8 19.0 E 24.4 0.0 0.0
15:49 10.9 10.8 99 1021.8 21.3 S 22.8 0.0 0.0
15:50 10.9 10.8 99 1021.9 19.0 S 22.8 0.0 0.0
15:51 10.9 10.8 99 1021.8 19.0 S 22.1 0.0 0.0
15:52 10.9 10.8 99 1021.8 22.1 S 22.1 0.0 0.0
15:53 10.9 10.8 99 1021.9 16.8 S 22.8 0.0 0.0
15:54 10.8 10.7 99 1021.8 23.5 SE 23.5 0.0 0.0
15:55 10.8 10.7 99 1021.8 15.9 NW 23.5 0.0 0.0
15:56 10.9 10.8 99 1021.9 23.5 S 26.6 0.0 0.0
15:56 10.9 10.8 99 1021.9 23.5 S 26.6 0.0 0.0
15:57 10.8 10.7 99 1022.0 22.1 S 26.6 0.0 0.0
15:58 10.8 10.7 99 1021.9 17.4 S 26.6 0.0 0.0
15:59 10.8 10.7 99 1021.8 21.3 S 26.6 0.0 0.0
16:00 10.8 10.7 99 1021.9 21.3 S 26.6 0.0 0.0
16:02 10.8 10.7 99 1021.8 21.3 S 26.6 0.0 0.0
16:03 10.8 10.7 99 1021.7 17.4 S 26.6 0.0 0.0
16:03 10.8 10.7 99 1021.7 17.4 S 26.6 0.0 0.0
16:04 10.8 10.7 99 1021.7 22.1 S 26.6 0.0 0.0
16:06 10.8 10.7 99 1021.7 19.7 S 25.1 0.0 0.0
16:06 10.8 10.7 99 1021.7 19.7 S 25.1 0.0 0.0
16:07 10.8 10.7 99 1021.6 24.4 S 24.4 0.0 0.1
16:09 10.8 10.7 99 1021.7 22.8 WSW 24.4 0.8 0.1
16:10 10.8 10.7 99 1021.7 19.7 S 24.4 0.8 0.1
16:11 10.7 10.6 99 1021.6 19.0 S 24.4 0.8 0.1
16:11 10.7 10.6 99 1021.6 19.0 S 24.4 0.8 0.1
16:13 10.7 10.6 99 1021.6 19.0 S 24.4 0.0 0.1
16:15 10.7 10.6 99 1021.7 20.6 SE 24.4 0.8 0.1
16:16 10.7 10.6 99 1021.6 22.8 SE 24.4 0.8 0.1
16:16 10.7 10.6 99 1021.6 22.8 SE 24.4 0.8 0.1
16:18 10.7 10.6 99 1021.7 19.0 S 28.2 1.5 0.2
16:18 10.7 10.6 99 1021.7 19.0 S 28.2 1.5 0.2
16:19 10.7 10.6 99 1021.7 19.7 S 28.2 0.8 0.2
16:21 10.7 10.6 99 1021.6 18.3 S 28.2 0.8 0.2
16:22 10.7 10.6 99 1021.5 20.6 WSW 28.2 0.8 0.3
16:23 10.7 10.6 99 1021.5 23.5 SE 28.2 0.8 0.3
16:24 10.7 10.6 99 1021.4 23.5 S 28.2 0.8 0.3
16:25 10.7 10.6 99 1021.4 25.1 SE 28.2 0.8 0.3
16:25 10.7 10.6 99 1021.4 25.1 SE 28.2 0.8 0.3
16:26 10.6 10.5 99 1021.4 23.5 S 28.2 0.8 0.3
16:27 10.7 10.6 99 1021.4 22.1 S 25.9 1.5 0.3
16:28 10.7 10.6 99 1021.4 19.0 S 25.9 0.8 0.3
16:29 10.6 10.5 99 1021.2 19.7 S 25.9 0.8 0.3
16:31 10.6 10.5 99 1021.2 17.4 S 25.9 0.8 0.3
16:32 10.6 10.5 99 1021.3 19.7 S 25.9 0.0 0.3
16:32 10.6 10.5 99 1021.3 19.7 S 25.9 0.0 0.3
16:33 10.6 10.5 99 1021.4 21.3 SE 25.9 0.0 0.3
16:34 10.7 10.6 99 1021.4 19.0 S 25.9 0.0 0.3
16:35 10.6 10.5 99 1021.3 21.3 S 25.9 0.0 0.3
16:36 10.6 10.5 99 1021.4 19.0 SE 23.5 0.0 0.3
16:37 10.6 10.5 99 1021.3 21.3 WNW 22.8 0.0 0.3
16:39 10.6 10.5 99 1021.2 19.0 S 23.5 0.0 0.3
16:40 10.6 10.5 99 1021.2 19.0 SE 23.5 0.0 0.3
16:41 10.6 10.5 99 1021.2 19.0 SE 25.9 0.0 0.3
16:41 10.6 10.5 99 1021.2 19.0 SE 25.9 0.0 0.3
16:43 10.6 10.5 99 1021.3 18.3 S 25.9 0.0 0.3
16:44 10.6 10.5 99 1021.1 19.7 S 25.9 0.0 0.3
16:45 10.6 10.5 99 1021.3 23.5 S 25.9 0.0 0.3
16:46 10.6 10.5 99 1021.2 16.8 S 25.9 0.0 0.3
16:47 10.6 10.5 99 1021.1 19.7 NW 25.9 0.0 0.3
16:48 10.6 10.5 99 1021.2 19.7 S 25.9 0.0 0.3
16:48 10.6 10.5 99 1021.2 19.7 S 25.9 0.0 0.3
16:50 10.6 10.5 99 1021.1 19.0 WSW 25.9 0.0 0.3
16:51 10.6 10.5 99 1021.1 14.5 SE 25.9 0.0 0.3
16:52 10.6 10.5 99 1021.0 17.4 WSW 23.5 0.0 0.3
16:53 10.6 10.5 99 1021.0 23.5 SE 23.5 0.0 0.3
16:54 10.6 10.5 99 1020.8 20.6 S 23.5 0.0 0.3
16:56 10.6 10.5 99 1021.1 18.3 S 23.5 0.0 0.3
16:56 10.6 10.5 99 1021.1 18.3 S 23.5 0.0 0.3
16:57 10.6 10.5 99 1020.8 22.8 SE 23.5 0.0 0.3
16:58 10.6 10.5 99 1020.8 22.8 S 23.5 0.0 0.3
16:59 10.6 10.5 99 1020.8 19.7 S 23.5 0.0 0.3
17:00 10.6 10.5 99 1020.9 20.6 S 23.5 0.8 0.4
17:00 10.6 10.5 99 1020.9 20.6 S 23.5 0.8 0.4
17:02 10.5 10.4 99 1020.8 15.2 S 23.5 0.8 0.4
17:03 10.6 10.5 99 1020.9 32.0 SE 32.0 0.8 0.4
17:04 10.5 10.4 99 1020.8 26.6 S 32.0 0.8 0.4
17:05 10.5 10.4 99 1020.8 19.7 W 32.0 0.8 0.4
17:06 10.6 10.5 99 1020.7 22.8 S 32.0 0.0 0.4
17:06 10.6 10.5 99 1020.7 22.8 S 32.0 0.0 0.4
17:08 10.5 10.4 99 1020.6 22.8 S 32.0 0.0 0.4
17:09 10.5 10.4 99 1020.7 19.7 WSW 32.0 0.0 0.4
17:09 10.5 10.4 99 1020.7 19.7 WSW 32.0 0.0 0.4
17:11 10.5 10.4 99 1020.6 20.6 S 32.0 0.0 0.4
17:11 10.5 10.4 99 1020.6 20.6 S 32.0 0.0 0.4
17:13 10.6 10.5 99 1020.4 20.6 S 26.6 0.0 0.4
17:14 10.5 10.4 99 1020.7 22.8 S 22.8 0.0 0.4
17:15 10.5 10.4 99 1020.5 20.6 S 22.8 0.0 0.4
17:15 10.5 10.4 99 1020.5 20.6 S 22.8 0.0 0.4
17:17 10.5 10.4 99 1020.6 20.6 S 22.8 0.0 0.4
17:18 10.6 10.5 99 1020.5 21.3 S 22.8 0.0 0.4
17:19 10.6 10.5 99 1020.6 22.8 SE 22.8 0.0 0.4
17:20 10.6 10.5 99 1020.5 19.7 SE 22.8 0.0 0.4
17:21 10.6 10.5 99 1020.5 22.8 S 22.8 0.0 0.4
17:22 10.6 10.5 99 1020.5 21.3 SE 22.8 0.0 0.4
17:23 10.6 10.5 99 1020.7 24.4 SE 24.4 0.0 0.4
17:24 10.6 10.5 99 1020.4 22.1 W 24.4 0.0 0.4
17:25 10.6 10.5 99 1020.5 17.4 SE 24.4 0.0 0.4
17:25 10.6 10.5 99 1020.5 17.4 SE 24.4 0.0 0.4
17:27 10.6 10.5 99 1020.6 24.4 S 24.4 0.0 0.4
17:28 10.6 10.5 99 1020.5 22.8 NW 24.4 0.8 0.4
17:29 10.6 10.5 99 1020.6 20.6 SE 24.4 0.8 0.4
17:30 10.6 10.5 99 1020.4 23.5 S 24.4 0.8 0.4
17:31 10.6 10.5 99 1020.4 23.5 SE 24.4 0.8 0.4
17:32 10.6 10.5 99 1020.3 21.3 SE 24.4 0.8 0.4
17:32 10.6 10.5 99 1020.3 21.3 SE 24.4 0.8 0.4
17:34 10.6 10.5 99 1020.4 20.6 SE 24.4 0.0 0.4
17:35 10.6 10.5 99 1020.5 24.4 S 24.4 0.0 0.4
17:36 10.6 10.5 99 1020.5 22.8 S 24.4 0.0 0.4
17:37 10.6 10.5 99 1020.2 23.5 NW 24.4 0.8 0.5
17:38 10.6 10.5 99 1020.3 24.4 SE 24.4 0.8 0.5
17:39 10.6 10.5 99 1020.1 22.8 S 24.4 0.8 0.5
17:40 10.6 10.5 99 1020.1 18.3 SE 24.4 0.8 0.5
17:41 10.6 10.5 99 1020.2 22.8 S 24.4 0.8 0.5
17:42 10.6 10.5 99 1020.2 25.9 N 25.9 0.0 0.5
17:43 10.6 10.5 99 1020.2 19.0 WSW 25.9 0.0 0.5
17:45 10.6 10.5 99 1020.2 25.9 S 25.9 0.0 0.5
17:45 10.6 10.5 99 1020.2 25.9 S 25.9 0.0 0.5
17:46 10.6 10.5 99 1020.3 24.4 S 25.9 0.0 0.5
17:47 10.6 10.5 99 1020.2 23.5 S 25.9 0.0 0.5
17:48 10.6 10.5 99 1020.2 23.5 S 25.9 0.0 0.5
17:49 10.6 10.5 99 1020.4 25.1 S 25.9 0.0 0.5
17:50 10.6 10.5 99 1020.2 25.1 SW 25.9 0.0 0.5
17:50 10.6 10.5 99 1020.2 25.1 SW 25.9 0.0 0.5
17:52 10.6 10.5 99 1020.2 20.6 SE 26.6 0.0 0.5
17:53 10.6 10.5 99 1020.2 22.8 S 26.6 0.0 0.5
17:54 10.6 10.5 99 1020.1 21.3 S 26.6 0.0 0.5
17:55 10.6 10.5 99 1020.1 22.1 S 26.6 0.0 0.5
17:56 10.6 10.5 99 1020.2 16.8 S 26.6 0.0 0.5
17:56 10.6 10.5 99 1020.2 16.8 S 26.6 0.0 0.5
17:58 10.5 10.4 99 1020.1 23.5 S 26.6 0.0 0.5
17:58 10.5 10.4 99 1020.1 23.5 S 26.6 0.0 0.5
18:00 10.6 10.5 99 1020.0 17.4 S 26.6 0.0 0.5
18:00 10.6 10.5 99 1020.0 17.4 S 26.6 0.0 0.5
18:02 10.6 10.5 99 1020.0 20.6 S 25.9 0.0 0.5
18:02 10.6 10.5 99 1020.0 20.6 S 25.9 0.0 0.5
18:04 10.6 10.5 99 1019.9 16.8 SE 25.9 0.0 0.5
18:04 10.6 10.5 99 1019.9 16.8 SE 25.9 0.0 0.5
18:04 10.6 10.5 99 1019.9 16.8 SE 25.9 0.0 0.5
18:07 10.6 10.5 99 1019.7 21.3 S 23.5 0.0 0.5
18:07 10.6 10.5 99 1019.7 21.3 S 23.5 0.0 0.5
18:09 10.5 10.4 99 1019.8 16.8 S 23.5 0.0 0.6
18:09 10.5 10.4 99 1019.8 16.8 S 23.5 0.0 0.6
18:11 10.6 10.5 99 1019.9 23.5 S 23.5 0.8 0.6
18:11 10.6 10.5 99 1019.9 23.5 S 23.5 0.8 0.6
18:11 10.6 10.5 99 1019.9 23.5 S 23.5 0.8 0.6
18:14 10.6 10.5 99 1019.7 24.4 S 24.4 0.8 0.6
18:14 10.6 10.5 99 1019.7 24.4 S 24.4 0.8 0.6
18:16 10.6 10.5 99 1019.7 22.8 S 24.4 0.0 0.6
18:16 10.6 10.5 99 1019.7 22.8 S 24.4 0.0 0.6
18:16 10.6 10.5 99 1019.7 22.8 S 24.4 0.0 0.6
18:19 10.6 10.5 99 1019.6 24.4 S 24.4 0.0 0.6
18:19 10.6 10.5 99 1019.6 24.4 S 24.4 0.0 0.6
18:21 10.6 10.5 99 1019.5 17.4 W 24.4 1.5 0.8
18:21 10.6 10.5 99 1019.5 17.4 W 24.4 1.5 0.8
18:23 10.6 10.5 99 1019.7 28.2 NNE 28.2 3.0 0.8
18:23 10.6 10.5 99 1019.7 28.2 NNE 28.2 3.0 0.8
18:25 10.7 10.6 99 1019.6 22.8 S 28.2 2.3 0.9
18:25 10.7 10.6 99 1019.6 22.8 S 28.2 2.3 0.9
18:27 10.7 10.6 99 1019.6 22.8 WSW 28.2 3.0 1.0
18:28 10.7 10.6 99 1019.5 25.1 S 28.2 2.3 1.1
18:28 10.7 10.6 99 1019.5 25.1 S 28.2 2.3 1.1
18:30 10.7 10.6 99 1019.5 19.7 S 28.2 2.3 1.1
18:31 10.7 10.6 99 1019.4 22.1 S 28.2 2.3 1.1
18:31 10.7 10.6 99 1019.4 22.1 S 28.2 2.3 1.1
18:33 10.7 10.6 99 1019.5 19.7 S 26.6 2.3 1.2
18:34 10.6 10.5 99 1019.4 24.4 S 26.6 1.5 1.2
18:35 10.7 10.6 99 1019.3 26.6 S 26.6 1.5 1.2
18:36 10.7 10.6 99 1019.5 20.6 SE 26.6 1.5 1.3
18:38 10.7 10.6 99 1019.3 18.3 WSW 26.6 0.8 1.3
18:38 10.7 10.6 99 1019.3 18.3 WSW 26.6 0.8 1.3
18:39 10.7 10.6 99 1019.2 28.9 SE 28.9 1.5 1.3
18:40 10.7 10.6 99 1019.5 22.8 S 28.9 1.5 1.3
18:41 10.7 10.6 99 1019.4 23.5 SE 28.9 0.8 1.3
18:42 10.7 10.6 99 1019.3 20.6 S 28.9 0.8 1.3
18:43 10.6 10.5 99 1019.4 21.3 S 28.9 1.5 1.4
18:44 10.6 10.5 99 1019.2 22.1 WSW 28.9 0.8 1.4
18:45 10.6 10.5 99 1019.2 24.4 S 29.8 0.8 1.4
18:46 10.6 10.5 99 1019.2 28.2 S 29.8 0.8 1.4
18:47 10.6 10.5 99 1019.2 21.3 S 29.8 0.8 1.4
18:47 10.6 10.5 99 1019.2 21.3 S 29.8 0.8 1.4
18:49 10.6 10.5 99 1019.4 16.8 S 29.8 0.8 1.4
18:50 10.6 10.5 99 1019.2 18.3 SE 29.8 0.8 1.4
18:51 10.6 10.5 99 1019.1 19.7 W 29.8 0.8 1.4
18:52 10.6 10.5 99 1019.2 15.9 S 29.8 0.8 1.4
18:53 10.6 10.5 99 1019.0 19.0 S 29.8 0.0 1.4
18:54 10.6 10.5 99 1019.1 22.8 S 29.8 0.0 1.5
18:55 10.6 10.5 99 1019.2 28.2 SE 28.2 0.8 1.5
18:56 10.6 10.5 99 1019.1 22.1 S 28.2 0.8 1.5
18:57 10.7 10.6 99 1019.0 19.7 S 28.2 1.5 1.6
18:57 10.7 10.6 99 1019.0 19.7 S 28.2 1.5 1.6
18:59 10.7 10.6 99 1019.1 18.3 SE 28.2 1.5 1.6
19:00 10.7 10.6 99 1019.1 21.3 S 28.2 0.8 1.6
19:01 10.7 10.6 99 1019.0 21.3 S 28.2 0.8 1.6
19:02 10.7 10.6 99 1018.9 18.3 NW 28.2 0.8 1.6
19:03 10.7 10.6 99 1019.2 23.5 S 28.2 0.8 1.6
19:03 10.7 10.6 99 1019.2 23.5 S 28.2 0.8 1.6
19:05 10.8 10.7 99 1019.1 23.5 S 28.2 2.3 1.8
19:06 10.7 10.6 99 1019.0 17.4 S 26.6 2.3 1.8
19:07 10.8 10.7 99 1019.1 21.3 S 26.6 2.3 1.8
19:07 10.8 10.7 99 1019.1 21.3 S 26.6 2.3 1.8
19:09 10.7 10.6 99 1019.1 22.8 SE 26.6 2.3 1.8
19:10 10.7 10.6 99 1019.0 23.5 S 26.6 0.8 1.9
19:10 10.7 10.6 99 1019.0 23.5 S 26.6 0.8 1.9
19:12 10.8 10.7 99 1018.9 24.4 S 26.6 1.5 2.0
19:12 10.8 10.7 99 1018.9 24.4 S 26.6 1.5 2.0
19:13 10.8 10.7 99 1018.7 25.1 S 26.6 2.3 2.0
19:15 10.8 10.7 99 1019.0 28.2 S 28.2 2.3 2.0
19:15 10.8 10.7 99 1019.0 28.2 S 28.2 2.3 2.0
19:17 10.8 10.7 99 1018.9 28.2 S 28.2 1.5 2.1
19:17 10.8 10.7 99 1018.9 28.2 S 28.2 1.5 2.1
19:19 10.8 10.7 99 1018.7 23.5 S 28.2 0.8 2.1
19:19 10.8 10.7 99 1018.7 23.5 S 28.2 0.8 2.1
19:21 10.8 10.7 99 1018.7 22.8 SW 28.2 0.8 2.1
19:21 10.8 10.7 99 1018.7 22.8 SW 28.2 0.8 2.1
19:23 10.8 10.7 99 1018.9 28.2 S 28.2 0.0 2.1
19:23 10.8 10.7 99 1018.9 28.2 S 28.2 0.0 2.1
19:25 10.8 10.7 99 1018.7 23.5 S 28.2 0.0 2.1
19:25 10.8 10.7 99 1018.7 23.5 S 28.2 0.0 2.1
19:27 10.8 10.7 99 1018.9 20.6 SE 28.2 0.8 2.1
19:27 10.8 10.7 99 1018.9 20.6 SE 28.2 0.8 2.1
19:27 10.8 10.7 99 1018.9 20.6 SE 28.2 0.8 2.1
19:30 10.8 10.7 99 1018.8 23.5 S 28.2 0.8 2.1
19:31 10.8 10.7 99 1018.8 21.3 S 28.2 0.0 2.1
19:32 10.8 10.7 99 1018.5 21.3 SE 28.2 0.8 2.2
19:32 10.8 10.7 99 1018.5 21.3 SE 28.2 0.8 2.2
19:34 10.8 10.7 99 1018.5 22.8 S 23.5 1.5 2.3
19:35 10.8 10.7 99 1018.4 20.6 WSW 23.5 1.5 2.3
19:36 10.8 10.7 99 1018.7 20.6 SE 23.5 1.5 2.3
19:37 10.8 10.7 99 1018.6 18.3 SE 25.1 0.8 2.3
19:38 10.8 10.7 99 1018.6 21.3 S 25.1 0.0 2.3
19:39 10.8 10.7 99 1018.6 25.9 SE 25.9 1.5 2.4
19:39 10.8 10.7 99 1018.6 25.9 SE 25.9 1.5 2.4
19:41 10.8 10.7 99 1018.5 19.0 S 25.9 2.3 2.5
19:42 10.8 10.7 99 1018.4 19.7 S 25.9 3.0 2.5
19:43 10.8 10.7 99 1018.5 21.3 S 25.9 3.0 2.5
19:45 10.8 10.7 99 1018.5 22.1 NNW 25.9 1.5 2.6
19:46 10.9 10.8 99 1018.5 22.1 S 25.9 1.5 2.6
19:46 10.9 10.8 99 1018.5 22.1 S 25.9 1.5 2.6
19:48 10.9 10.8 99 1018.3 15.2 S 25.9 0.8 2.6
19:49 10.9 10.8 99 1018.3 16.8 SE 25.9 0.8 2.6
19:50 10.9 10.8 99 1018.3 22.1 S 22.1 0.8 2.6
19:50 10.9 10.8 99 1018.3 22.1 S 22.1 0.8 2.6
19:52 10.9 10.8 99 1018.2 19.0 NNE 22.1 0.8 2.6
19:53 10.9 10.8 99 1018.2 24.4 S 24.4 0.8 2.6
19:54 10.9 10.8 99 1018.3 23.5 S 24.4 0.8 2.6
19:55 10.9 10.8 99 1018.1 20.6 S 24.4 0.8 2.6
19:56 10.9 10.8 99 1018.2 19.0 S 24.4 0.0 2.6
19:57 10.9 10.8 99 1018.3 18.3 WSW 24.4 0.0 2.6
19:58 10.9 10.8 99 1018.2 21.3 S 24.4 0.0 2.6
19:58 10.9 10.8 99 1018.2 21.3 S 24.4 0.0 2.6
20:00 10.9 10.8 99 1018.0 19.0 NNE 24.4 0.0 2.6
20:01 10.9 10.8 99 1018.2 19.0 NNE 24.4 0.0 2.6
20:02 10.9 10.8 99 1018.3 19.7 S 24.4 0.0 2.6
20:03 10.9 10.8 99 1018.2 19.0 S 23.5 0.0 2.6
20:04 10.9 10.8 99 1018.2 24.4 SW 24.4 0.0 2.6
20:04 10.9 10.8 99 1018.2 24.4 SW 24.4 0.0 2.6
20:05 10.9 10.8 99 1018.1 25.1 WSW 25.1 0.0 2.6
20:07 10.9 10.8 99 1018.1 22.8 S 25.1 0.8 2.7
20:08 10.9 10.8 99 1018.1 25.1 E 25.1 0.8 2.7
20:08 10.9 10.8 99 1018.1 25.1 E 25.1 0.8 2.7
20:10 10.9 10.8 99 1018.0 26.6 S 28.2 0.8 2.7
20:10 10.9 10.8 99 1018.0 26.6 S 28.2 0.8 2.7
20:12 10.9 10.8 99 1018.0 22.1 NW 28.2 0.0 2.7
20:12 10.9 10.8 99 1018.0 22.1 NW 28.2 0.0 2.7
20:14 10.9 10.8 99 1017.9 22.8 S 28.2 0.0 2.7
20:14 10.9 10.8 99 1017.9 22.8 S 28.2 0.0 2.7
20:16 10.9 10.8 99 1017.8 24.4 S 28.2 0.0 2.7
20:16 10.9 10.8 99 1017.8 24.4 S 28.2 0.0 2.7
20:16 10.9 10.8 99 1017.8 24.4 S 28.2 0.0 2.7
20:16 10.9 10.8 99 1017.8 24.4 S 28.2 0.0 2.7
20:20 10.9 10.8 99 1017.7 22.1 S 28.2 0.0 2.7
20:20 10.9 10.8 99 1017.7 22.1 S 28.2 0.0 2.7
20:20 10.9 10.8 99 1017.7 22.1 S 28.2 0.0 2.7
20:23 10.9 10.8 99 1017.8 18.3 S 28.2 0.0 2.7
20:23 10.9 10.8 99 1017.8 18.3 S 28.2 0.0 2.7
20:25 10.9 10.8 99 1017.9 25.9 W 28.9 0.0 2.7
20:26 10.9 10.8 99 1017.7 22.8 S 28.9 0.0 2.7
20:27 10.9 10.8 99 1017.8 18.3 S 28.9 0.0 2.7
20:28 10.9 10.8 99 1017.6 25.9 S 28.9 0.0 2.7
20:29 10.9 10.8 99 1017.6 22.8 S 28.9 0.8 2.8
20:30 10.9 10.8 99 1017.7 23.5 S 28.9 0.8 2.8
20:31 10.9 10.8 99 1017.4 20.6 S 28.9 0.8 2.8
20:31 10.9 10.8 99 1017.4 20.6 S 28.9 0.8 2.8
20:32 10.9 10.8 99 1017.5 15.9 S 28.9 0.8 2.8
20:34 10.9 10.8 99 1017.5 25.9 S 25.9 0.0 2.8
20:35 10.9 10.8 99 1017.6 21.3 S 25.9 0.0 2.8
20:36 10.9 10.8 99 1017.4 22.1 SW 25.9 0.8 2.8
20:36 10.9 10.8 99 1017.4 22.1 SW 25.9 0.8 2.8
20:38 10.9 10.8 99 1017.4 18.3 S 25.9 0.8 2.8
20:39 10.9 10.8 99 1017.2 21.3 WSW 25.9 0.8 2.8
20:40 10.9 10.8 99 1017.4 21.3 S 25.9 1.5 2.9
20:41 10.9 10.8 99 1017.4 19.0 S 25.9 0.8 2.9
20:42 11.0 10.9 99 1017.4 19.7 WSW 25.9 1.5 3.0
20:43 10.9 10.8 99 1017.2 17.4 S 25.9 1.5 3.0
20:44 10.9 10.8 99 1017.3 22.8 S 25.9 2.3 3.0
20:45 11.0 10.9 99 1017.3 19.0 S 25.9 1.5 3.0
20:46 11.0 10.9 99 1017.2 15.2 S 25.9 1.5 3.1
20:47 11.0 10.9 99 1017.3 21.3 SE 25.9 1.5 3.1
20:47 11.0 10.9 99 1017.3 21.3 SE 25.9 1.5 3.1
20:48 11.0 10.9 99 1017.4 22.8 S 32.0 1.5 3.1
20:50 11.0 10.9 99 1017.4 26.6 S 32.0 1.5 3.1
20:51 11.0 10.9 99 1017.3 22.1 S 32.0 1.5 3.1
20:52 11.0 10.9 99 1017.6 26.6 S 32.0 1.5 3.2
20:53 11.0 10.9 99 1017.2 31.1 S 32.0 1.5 3.2
20:54 11.0 10.9 99 1017.1 27.3 S 32.0 2.3 3.3
20:55 11.0 10.9 99 1017.1 29.8 S 32.0 1.5 3.3
20:55 11.0 10.9 99 1017.1 29.8 S 32.0 1.5 3.3
20:57 11.0 10.9 99 1017.1 25.9 S 32.0 1.5 3.3
20:58 11.0 10.9 99 1017.0 19.7 S 32.0 1.5 3.3
20:59 11.0 10.9 99 1017.2 28.2 S 31.1 0.8 3.3
21:00 11.1 11.0 99 1017.0 30.4 SE 31.1 0.8 3.3
21:01 11.1 11.0 99 1017.1 30.4 SE 31.1 0.8 3.3
21:02 11.1 11.0 99 1017.0 22.8 S 31.1 0.0 3.3
21:03 11.1 11.0 99 1017.0 28.2 S 30.4 0.0 3.4
21:04 11.1 11.0 99 1016.8 20.6 W 30.4 0.8 3.4
21:05 11.1 11.0 99 1016.9 26.6 S 30.4 0.8 3.4
21:05 11.1 11.0 99 1016.9 26.6 S 30.4 0.8 3.4
21:06 11.1 11.0 99 1016.8 22.8 SE 30.4 0.8 3.4
21:08 11.1 11.0 99 1016.9 31.1 S 31.1 0.8 3.4
21:08 11.1 11.0 99 1016.9 31.1 S 31.1 0.8 3.4
21:10 11.1 11.0 99 1016.6 25.9 S 31.1 0.0 3.4
21:11 11.1 11.0 99 1017.2 31.1 S 31.1 0.0 3.4
21:11 11.1 11.0 99 1017.2 31.1 S 31.1 0.0 3.4
21:13 11.1 11.0 99 1016.8 23.5 S 31.1 0.0 3.4
21:13 11.1 11.0 99 1016.8 23.5 S 31.1 0.0 3.4
21:15 11.1 11.0 99 1016.7 25.1 SSW 31.1 0.0 3.4
21:16 11.1 11.0 99 1016.8 30.4 S 31.1 0.0 3.4
21:16 11.1 11.0 99 1016.8 30.4 S 31.1 0.0 3.4
21:18 11.2 11.1 99 1016.8 28.2 S 31.1 0.0 3.4
21:19 11.1 11.0 99 1016.7 24.4 SE 31.1 0.0 3.4
21:19 11.1 11.0 99 1016.7 24.4 SE 31.1 0.0 3.4
21:21 11.1 11.0 99 1016.7 28.9 SE 31.1 0.0 3.4
21:22 11.2 11.1 99 1016.6 25.9 S 30.4 0.0 3.4
21:23 11.2 11.1 99 1016.6 27.3 SE 30.4 0.0 3.4
21:23 11.2 11.1 99 1016.6 27.3 SE 30.4 0.0 3.4
21:25 11.2 11.1 99 1016.6 27.3 SE 30.4 0.0 3.4
21:26 11.2 11.1 99 1016.6 24.4 S 30.4 0.0 3.4
21:27 11.2 11.1 99 1016.5 22.8 SE 28.9 0.0 3.4
21:28 11.2 11.1 99 1016.5 22.8 SE 28.9 0.0 3.4
21:29 11.2 11.1 99 1016.3 29.8 S 29.8 0.0 3.4
21:30 11.2 11.1 99 1016.5 23.5 S 29.8 0.0 3.4
21:31 11.2 11.1 99 1016.4 29.8 S 32.7 0.0 3.4
21:31 11.2 11.1 99 1016.4 29.8 S 32.7 0.0 3.4
21:33 11.2 11.1 99 1016.4 24.4 S 32.7 0.0 3.4
21:34 11.2 11.1 99 1016.4 28.2 S 32.7 0.0 3.4
21:35 11.2 11.1 99 1016.2 19.0 S 32.7 0.0 3.4
21:36 11.2 11.1 99 1016.3 23.5 S 32.7 0.0 3.4
21:37 11.2 11.1 99 1016.5 22.8 NE 32.7 0.0 3.4
21:37 11.2 11.1 99 1016.5 22.8 NE 32.7 0.0 3.4
21:39 11.2 11.1 99 1016.5 27.3 S 32.7 0.0 3.4
21:40 11.3 11.2 99 1016.5 21.3 S 32.7 0.0 3.4
21:40 11.3 11.2 99 1016.5 21.3 S 32.7 0.0 3.4
21:42 11.3 11.2 99 1016.4 22.1 S 30.4 0.0 3.4
21:43 11.3 11.2 99 1016.5 25.1 NNE 30.4 0.0 3.4
21:44 11.3 11.2 99 1016.3 24.4 SW 30.4 0.0 3.4
21:45 11.3 11.2 99 1016.3 29.8 WSW 30.4 0.0 3.4
21:45 11.3 11.2 99 1016.3 29.8 WSW 30.4 0.0 3.4
21:47 11.3 11.2 99 1016.4 25.9 S 29.8 0.0 3.4
21:48 11.3 11.2 99 1016.4 24.4 S 29.8 0.0 3.4
21:49 11.3 11.2 99 1016.3 26.6 WSW 29.8 0.0 3.4
21:50 11.3 11.2 99 1016.4 25.9 S 29.8 0.0 3.4
21:50 11.3 11.2 99 1016.4 25.9 S 29.8 0.0 3.4
21:52 11.3 11.2 99 1016.2 24.4 S 29.8 0.0 3.4
21:53 11.3 11.2 99 1016.3 22.8 S 29.8 0.0 3.4
21:54 11.3 11.2 99 1016.3 25.1 WSW 29.8 0.0 3.4
21:55 11.4 11.3 99 1016.3 28.2 WSW 29.8 0.0 3.4
21:55 11.4 11.3 99 1016.3 28.2 WSW 29.8 0.0 3.4
21:56 11.4 11.3 99 1016.1 24.4 S 28.9 0.0 3.4
21:58 11.3 11.2 99 1016.2 23.5 S 28.9 0.0 3.4
21:59 11.4 11.3 99 1016.0 21.3 S 28.9 0.0 3.4
22:00 11.4 11.3 99 1016.2 22.1 S 28.9 0.0 3.4
22:01 11.4 11.3 99 1016.1 22.1 S 28.9 0.0 3.4
22:02 11.4 11.3 99 1015.7 26.6 S 28.9 0.0 3.4
22:03 11.4 11.3 99 1016.0 21.3 S 28.9 0.0 3.4
22:04 11.4 11.3 99 1016.0 24.4 S 28.2 0.0 3.4
22:04 11.4 11.3 99 1016.0 24.4 S 28.2 0.0 3.4
22:06 11.4 11.3 99 1015.8 22.8 S 28.2 0.0 3.4
22:07 11.4 11.3 99 1016.0 23.5 NNW 28.2 0.0 3.4
22:08 11.4 11.3 99 1015.7 22.8 S 28.2 0.0 3.4
22:08 11.4 11.3 99 1015.7 22.8 S 28.2 0.0 3.4
22:10 11.4 11.3 99 1015.8 25.9 S 28.2 0.0 3.4
22:10 11.4 11.3 99 1015.8 25.9 S 28.2 0.0 3.4
22:11 11.4 11.3 99 1015.8 20.6 S 28.2 0.0 3.4
22:13 11.4 11.3 99 1015.6 27.3 S 28.9 0.0 3.4
22:13 11.4 11.3 99 1015.6 27.3 S 28.9 0.0 3.4
22:15 11.4 11.3 99 1015.8 24.4 S 28.9 0.0 3.4
22:16 11.4 11.3 99 1015.7 28.9 WSW 28.9 0.0 3.4
22:16 11.4 11.3 99 1015.7 28.9 WSW 28.9 0.0 3.4
22:17 11.4 11.3 99 1015.8 26.6 S 28.9 0.0 3.4
22:19 11.4 11.3 99 1015.7 29.8 SE 29.8 0.8 3.5
22:19 11.4 11.3 99 1015.7 29.8 SE 29.8 0.8 3.5
22:21 11.4 11.3 99 1015.7 26.6 SE 29.8 0.8 3.5
22:22 11.4 11.3 99 1015.6 23.5 SE 29.8 0.8 3.5
22:23 11.4 11.3 99 1015.6 24.4 NNW 29.8 0.8 3.5
22:24 11.4 11.3 99 1015.7 25.1 NNW 29.8 0.0 3.5
22:25 11.5 11.4 99 1015.7 25.1 S 29.8 0.0 3.5
22:26 11.4 11.3 99 1015.7 28.2 S 29.8 0.8 3.6
22:27 11.4 11.3 99 1015.5 24.4 S 29.8 1.5 3.7
22:27 11.4 11.3 99 1015.5 24.4 S 29.8 1.5 3.7
22:28 11.5 11.4 99 1015.7 32.7 S 32.7 2.3 3.7
22:30 11.4 11.3 99 1015.5 20.6 S 32.7 2.3 3.7
22:31 11.4 11.3 99 1015.7 19.0 S 32.7 2.3 3.7
22:32 11.5 11.4 99 1015.5 20.6 S 32.7 1.5 3.7
22:33 11.5 11.4 99 1015.4 25.9 S 32.7 0.8 3.7
22:34 11.5 11.4 99 1015.5 15.9 S 32.7 0.8 3.7
22:35 11.5 11.4 99 1015.7 24.4 S 32.7 1.5 3.8
22:36 11.5 11.4 99 1015.5 25.9 SE 32.7 0.8 3.8
22:37 11.5 11.4 99 1015.3 22.8 SE 32.7 0.8 3.8
22:37 11.5 11.4 99 1015.3 22.8 SE 32.7 0.8 3.8
22:38 11.5 11.4 99 1015.5 22.8 S 32.7 0.8 3.8
22:39 11.5 11.4 99 1015.2 23.5 S 25.9 0.8 3.8
22:41 11.5 11.4 99 1015.2 22.1 S 25.9 0.0 3.8
22:42 11.5 11.4 99 1015.2 26.6 SE 26.6 0.8 3.8
22:43 11.5 11.4 99 1015.2 17.4 S 26.6 0.8 3.8
22:44 11.5 11.4 99 1015.2 22.8 S 26.6 0.7 3.8
22:45 11.5 11.4 99 1015.3 25.9 S 26.6 0.8 3.8
22:46 11.5 11.4 99 1015.2 28.2 WSW 28.2 0.8 3.8
22:47 11.5 11.4 99 1015.3 22.1 N 28.2 0.0 3.8
22:48 11.5 11.4 99 1015.4 22.8 S 28.2 0.0 3.9
22:48 11.5 11.4 99 1015.4 22.8 S 28.2 0.0 3.9
22:49 11.5 11.4 99 1015.3 20.6 SE 28.2 0.8 4.0
22:51 11.5 11.4 99 1015.2 18.3 SE 28.2 1.5 4.0
22:52 11.5 11.4 99 1015.4 21.3 S 28.2 1.5 4.0
22:53 11.5 11.4 99 1015.4 20.6 S 28.2 1.5 4.0
22:54 11.5 11.4 99 1015.5 28.2 S 28.2 1.5 4.0
22:55 11.5 11.4 99 1015.1 27.3 S 28.2 0.8 4.0
22:56 11.6 11.5 99 1014.9 22.1 S 28.2 0.8 4.0
22:57 11.5 11.4 99 1015.0 30.4 S 30.4 0.8 4.0
22:57 11.5 11.4 99 1015.0 30.4 S 30.4 0.8 4.0
22:58 11.5 11.4 99 1015.1 23.5 WSW 30.4 0.8 4.0
23:00 11.6 11.5 99 1015.2 29.8 SE 30.4 0.0 4.0
23:01 11.6 11.5 99 1015.1 29.8 SE 30.4 0.0 4.0
23:02 11.6 11.5 99 1015.1 29.8 SE 30.4 0.0 4.0
23:03 11.6 11.5 99 1015.2 29.8 SE 30.4 0.0 4.0
23:04 11.6 11.5 99 1014.9 22.8 S 30.4 0.0 4.0
23:04 11.6 11.5 99 1014.9 22.8 S 30.4 0.0 4.0
23:06 11.6 11.5 99 1014.9 25.9 SE 30.4 0.0 4.0
23:07 11.6 11.5 99 1014.8 24.4 S 30.4 0.8 4.1
23:08 11.6 11.5 99 1014.9 25.1 S 29.8 0.8 4.1
23:08 11.6 11.5 99 1014.9 25.1 S 29.8 0.8 4.1
23:10 11.6 11.5 99 1014.8 25.9 SE 29.8 0.8 4.1
23:10 11.6 11.5 99 1014.8 25.9 SE 29.8 0.8 4.1
23:12 11.6 11.5 99 1014.8 20.6 SE 29.8 0.0 4.1
23:13 11.6 11.5 99 1014.7 27.3 SE 29.8 0.0 4.1
23:13 11.6 11.5 99 1014.7 27.3 SE 29.8 0.0 4.1
23:15 11.6 11.5 99 1014.7 30.4 S 30.4 0.0 4.1
23:15 11.6 11.5 99 1014.7 30.4 S 30.4 0.0 4.1
23:17 11.6 11.5 99 1014.9 24.4 SE 30.4 0.0 4.1
23:18 11.6 11.5 99 1014.7 21.3 SE 30.4 0.0 4.1
23:18 11.6 11.5 99 1014.7 21.3 SE 30.4 0.0 4.1
23:20 11.6 11.5 99 1014.6 30.4 S 30.4 0.8 4.2
23:20 11.6 11.5 99 1014.6 30.4 S 30.4 0.8 4.2
23:21 11.6 11.5 99 1014.5 22.1 SE 33.6 0.8 4.2
23:23 11.6 11.5 99 1014.7 24.4 S 33.6 0.8 4.2
23:23 11.6 11.5 99 1014.7 24.4 S 33.6 0.8 4.2
23:24 11.6 11.5 99 1014.4 29.8 SE 33.6 0.8 4.2
23:26 11.6 11.5 99 1014.6 28.2 SE 33.6 0.0 4.2
23:27 11.6 11.5 99 1014.6 28.9 SE 33.6 0.0 4.2
23:28 11.6 11.5 99 1014.7 26.6 SE 33.6 0.0 4.2
23:29 11.6 11.5 99 1014.5 24.4 S 33.6 0.0 4.2
23:30 11.6 11.5 99 1014.5 32.7 S 33.6 0.0 4.2
23:30 11.6 11.5 99 1014.5 32.7 S 33.6 0.0 4.2
23:31 11.6 11.5 99 1014.5 22.8 S 32.7 0.0 4.2
23:32 11.6 11.5 99 1014.4 22.1 WSW 32.7 0.0 4.2
23:33 11.6 11.5 99 1014.5 22.8 S 32.7 0.8 4.2
23:35 11.6 11.5 99 1014.5 26.6 S 32.7 0.8 4.2
23:36 11.6 11.5 99 1014.5 26.6 S 32.7 0.8 4.2
23:37 11.6 11.5 99 1014.3 25.9 S 32.7 0.8 4.2
23:38 11.6 11.5 99 1014.2 30.4 S 32.7 0.0 4.2
23:39 11.6 11.5 99 1014.2 17.4 W 32.7 0.0 4.2
23:40 11.7 11.6 99 1014.3 25.9 S 30.4 0.0 4.2
23:40 11.7 11.6 99 1014.3 25.9 S 30.4 0.0 4.2
23:41 11.6 11.5 99 1014.3 27.3 WSW 30.4 0.0 4.2
23:42 11.6 11.5 99 1014.2 19.0 S 30.4 0.0 4.2
23:44 11.7 11.6 99 1014.1 27.3 SE 30.4 0.0 4.2
23:45 11.7 11.6 99 1014.5 30.4 S 30.4 0.0 4.2
23:46 11.7 11.6 99 1014.2 27.3 S 30.4 0.0 4.2
23:47 11.7 11.6 99 1014.1 27.3 S 30.4 0.0 4.2
23:48 11.7 11.6 99 1014.2 26.6 S 30.4 0.0 4.2
23:49 11.7 11.6 99 1014.2 25.9 S 30.4 0.0 4.2
23:49 11.7 11.6 99 1014.2 25.9 S 30.4 0.0 4.2
23:50 11.7 11.6 99 1014.0 26.6 SE 30.4 0.0 4.2
23:52 11.7 11.6 99 1014.2 28.9 SE 30.4 0.0 4.2
23:53 11.7 11.6 99 1014.2 23.5 WSW 30.4 0.0 4.2
23:54 11.7 11.6 99 1013.9 24.4 S 30.4 0.0 4.2
23:55 11.7 11.6 99 1014.0 23.5 N 28.9 0.0 4.2
23:56 11.7 11.6 99 1014.0 19.0 S 28.9 0.0 4.2
23:57 11.7 11.6 99 1013.7 25.9 S 28.9 0.0 4.2
23:57 11.7 11.6 99 1013.7 25.9 S 28.9 0.0 4.2
23:59 11.7 11.6 99 1014.1 26.6 NNE 28.9 0.0 4.2
23:59 11.7 11.6 99 1014.1 26.6 NNE 28.9 0.0 4.2

UK - WEATHER STATION TOPSITES - UK World Weather Websites

This is a private weather station, never base important decisions or events on data from this weather station. Although every effort has been made to make the data as accurate as possible it does not meet MetOffice standards. It is proved as a guide of local weather conditions. We accept no liability for any loss which may arise from use of the data.

Copyright © Carnkie Weather 2009 - 2017.